Observation data for Hackberry on 07/19/2019      Previous  Date  Next       Current Mesonet Observations  Soil Data  Daily Summary Page  Observations in Plain Language
KHA3 190500Z 17015KT 31/18 A2985 RMK A01 T03060181  RH  047%=      5-min Rain = 0
KHA3 190501Z 17015KT 31/18 A2985 RMK A01 T03050181  RH  047%=      5-min Rain = 0
KHA3 190502Z 17014KT 31/18 A2985 RMK A01 T03050180  RH  047%=      5-min Rain = 0
KHA3 190503Z 17015KT 31/18 A2985 RMK A01 T03050180  RH  047%=      5-min Rain = 0
KHA3 190504Z 17013KT 31/18 A2985 RMK A01 T03050181  RH  048%=      5-min Rain = 0
KHA3 190505Z 17015KT 30/18 A2985 RMK A01 T03040181  RH  048%=      5-min Rain = 0
KHA3 190506Z 17014KT 30/18 A2985 RMK A01 T03040180  RH  048%=      5-min Rain = 0
KHA3 190507Z 16014KT 30/18 A2985 RMK A01 T03040180  RH  048%=      5-min Rain = 0
KHA3 190508Z 16014KT 30/18 A2985 RMK A01 T03040180  RH  048%=      5-min Rain = 0
KHA3 190509Z 17013KT 30/18 A2985 RMK A01 T03040180  RH  048%=      5-min Rain = 0
KHA3 190510Z 16013KT 30/18 A2985 RMK A01 T03030180  RH  048%=      5-min Rain = 0
KHA3 190511Z 16014KT 30/18 A2985 RMK A01 T03040180  RH  048%=      5-min Rain = 0
KHA3 190512Z 16015KT 30/18 A2985 RMK A01 T03040179  RH  047%=      5-min Rain = 0
KHA3 190513Z 16015KT 30/18 A2986 RMK A01 T03040180  RH  047%=      5-min Rain = 0
KHA3 190514Z 17015KT 30/18 A2986 RMK A01 T03040179  RH  047%=      5-min Rain = 0
KHA3 190515Z 17013KT 30/18 A2986 RMK A01 T03040179  RH  047%=      5-min Rain = 0
KHA3 190516Z 16012KT 30/18 A2986 RMK A01 T03040180  RH  047%=      5-min Rain = 0
KHA3 190517Z 17014KT 30/18 A2986 RMK A01 T03030180  RH  048%=      5-min Rain = 0
KHA3 190518Z 17012KT 30/18 A2986 RMK A01 T03020179  RH  048%=      5-min Rain = 0
KHA3 190519Z 16013KT 30/18 A2986 RMK A01 T03020179  RH  048%=      5-min Rain = 0
KHA3 190520Z 16014KT 30/18 A2986 RMK A01 T03020179  RH  048%=      5-min Rain = 0
KHA3 190521Z 17014KT 30/18 A2986 RMK A01 T03020179  RH  048%=      5-min Rain = 0
KHA3 190522Z 16015KT 30/18 A2986 RMK A01 T03020179  RH  048%=      5-min Rain = 0
KHA3 190523Z 17015KT 30/18 A2986 RMK A01 T03010178  RH  048%=      5-min Rain = 0
KHA3 190524Z 17013KT 30/18 A2986 RMK A01 T03020178  RH  048%=      5-min Rain = 0
KHA3 190525Z 17015KT 30/18 A2986 RMK A01 T03020179  RH  048%=      5-min Rain = 0
KHA3 190526Z 16013KT 30/18 A2986 RMK A01 T03010178  RH  048%=      5-min Rain = 0
KHA3 190527Z 16014KT 30/18 A2986 RMK A01 T03010178  RH  048%=      5-min Rain = 0
KHA3 190528Z 17012KT 30/18 A2986 RMK A01 T03010178  RH  048%=      5-min Rain = 0
KHA3 190529Z 16014KT 30/18 A2986 RMK A01 T03010178  RH  048%=      5-min Rain = 0
KHA3 190530Z 16013KT 30/18 A2986 RMK A01 T03000178  RH  048%=      5-min Rain = 0
KHA3 190531Z 17014KT 30/18 A2986 RMK A01 T03000178  RH  048%=      5-min Rain = 0
KHA3 190532Z 16014KT 30/18 A2986 RMK A01 T03000178  RH  048%=      5-min Rain = 0
KHA3 190533Z 16014KT 30/18 A2986 RMK A01 T03000177  RH  048%=      5-min Rain = 0
KHA3 190534Z 16014KT 30/18 A2986 RMK A01 T03000177  RH  048%=      5-min Rain = 0
KHA3 190535Z 16014KT 30/18 A2986 RMK A01 T03000177  RH  048%=      5-min Rain = 0
KHA3 190536Z 16013KT 30/18 A2986 RMK A01 T02990177  RH  048%=      5-min Rain = 0
KHA3 190537Z 16014KT 30/18 A2986 RMK A01 T02990177  RH  048%=      5-min Rain = 0
KHA3 190538Z 16013KT 30/18 A2986 RMK A01 T02990177  RH  048%=      5-min Rain = 0
KHA3 190539Z 16013KT 30/18 A2986 RMK A01 T02980177  RH  048%=      5-min Rain = 0
KHA3 190540Z 16014KT 30/18 A2986 RMK A01 T02980177  RH  048%=      5-min Rain = 0
KHA3 190541Z 17013KT 30/18 A2986 RMK A01 T02980177  RH  048%=      5-min Rain = 0
KHA3 190542Z 17014KT 30/18 A2986 RMK A01 T02980177  RH  048%=      5-min Rain = 0
KHA3 190543Z 17014KT 30/18 A2986 RMK A01 T02980176  RH  048%=      5-min Rain = 0
KHA3 190544Z 17014KT 30/18 A2986 RMK A01 T02980176  RH  048%=      5-min Rain = 0
KHA3 190545Z 17013KT 30/18 A2986 RMK A01 T02980176  RH  048%=      5-min Rain = 0
KHA3 190546Z 17014KT 30/18 A2986 RMK A01 T02980176  RH  048%=      5-min Rain = 0
KHA3 190547Z 17013KT 30/18 A2986 RMK A01 T02980176  RH  048%=      5-min Rain = 0
KHA3 190548Z 17012KT 30/18 A2986 RMK A01 T02980176  RH  048%=      5-min Rain = 0
KHA3 190549Z 16012G17KT 30/18 A2986 RMK A01 T02970176  RH  048%=      5-min Rain = 0
KHA3 190550Z 17014KT 30/18 A2986 RMK A01 T02970175  RH  048%=      5-min Rain = 0
KHA3 190551Z 16014KT 30/18 A2986 RMK A01 T02970175  RH  048%=      5-min Rain = 0
KHA3 190552Z 17015KT 30/18 A2986 RMK A01 T02970175  RH  048%=      5-min Rain = 0
KHA3 190553Z 17013KT 30/18 A2986 RMK A01 T02980175  RH  048%=      5-min Rain = 0
KHA3 190554Z 16014KT 30/18 A2986 RMK A01 T02980175  RH  048%=      5-min Rain = 0
KHA3 190555Z 16013KT 30/18 A2986 RMK A01 T02970175  RH  048%=      5-min Rain = 0
KHA3 190556Z 17012KT 30/18 A2986 RMK A01 T02970175  RH  048%=      5-min Rain = 0
KHA3 190557Z 16014KT 30/18 A2986 RMK A01 T02960175  RH  048%=      5-min Rain = 0
KHA3 190558Z 16012KT 30/18 A2986 RMK A01 T02970175  RH  048%=      5-min Rain = 0
KHA3 190559Z 17012KT 30/18 A2986 RMK A01 T02960175  RH  048%=      5-min Rain = 0
KHA3 190600Z 17015KT 30/17 A2986 RMK A01 T02950174  RH  048%=      5-min Rain = 0
KHA3 190601Z 17013KT 30/17 A2986 RMK A01 T02950174  RH  048%=      5-min Rain = 0
KHA3 190602Z 17012KT 30/17 A2986 RMK A01 T02950174  RH  048%=      5-min Rain = 0
KHA3 190603Z 16013KT 30/17 A2986 RMK A01 T02950174  RH  048%=      5-min Rain = 0
KHA3 190604Z 16014G19KT 30/17 A2986 RMK A01 T02950174  RH  048%=      5-min Rain = 0
KHA3 190605Z 16013KT 30/17 A2986 RMK A01 T02950174  RH  048%=      5-min Rain = 0
KHA3 190606Z 16013KT 30/17 A2986 RMK A01 T02950174  RH  048%=      5-min Rain = 0
KHA3 190607Z 16014KT 30/17 A2986 RMK A01 T02950174  RH  048%=      5-min Rain = 0
KHA3 190608Z 16014KT 30/17 A2986 RMK A01 T02950174  RH  048%=      5-min Rain = 0
KHA3 190609Z 16012KT 30/17 A2986 RMK A01 T02950173  RH  048%=      5-min Rain = 0
KHA3 190610Z 16012KT 30/17 A2986 RMK A01 T02950174  RH  048%=      5-min Rain = 0
KHA3 190611Z 16013KT 29/17 A2986 RMK A01 T02940174  RH  048%=      5-min Rain = 0
KHA3 190612Z 16012KT 29/17 A2986 RMK A01 T02930174  RH  049%=      5-min Rain = 0
KHA3 190613Z 16013KT 29/17 A2986 RMK A01 T02930174  RH  049%=      5-min Rain = 0
KHA3 190614Z 16012KT 29/17 A2986 RMK A01 T02930174  RH  049%=      5-min Rain = 0
KHA3 190615Z 16013KT 29/17 A2986 RMK A01 T02930174  RH  049%=      5-min Rain = 0
KHA3 190616Z 16013KT 29/17 A2986 RMK A01 T02930174  RH  049%=      5-min Rain = 0
KHA3 190617Z 16012KT 29/17 A2986 RMK A01 T02930174  RH  049%=      5-min Rain = 0
KHA3 190618Z 16014KT 29/17 A2986 RMK A01 T02920173  RH  049%=      5-min Rain = 0
KHA3 190619Z 16013KT 29/17 A2986 RMK A01 T02920173  RH  048%=      5-min Rain = 0
KHA3 190620Z 16014KT 29/17 A2986 RMK A01 T02920172  RH  048%=      5-min Rain = 0
KHA3 190621Z 16013KT 29/17 A2987 RMK A01 T02930173  RH  048%=      5-min Rain = 0
KHA3 190622Z 16012KT 29/17 A2987 RMK A01 T02930173  RH  048%=      5-min Rain = 0
KHA3 190623Z 16015KT 29/17 A2987 RMK A01 T02920173  RH  049%=      5-min Rain = 0
KHA3 190624Z 16014KT 29/17 A2987 RMK A01 T02930172  RH  048%=      5-min Rain = 0
KHA3 190625Z 16013KT 29/17 A2987 RMK A01 T02930173  RH  048%=      5-min Rain = 0
KHA3 190626Z 16015KT 29/17 A2987 RMK A01 T02930173  RH  048%=      5-min Rain = 0
KHA3 190627Z 16012KT 29/17 A2987 RMK A01 T02930173  RH  048%=      5-min Rain = 0
KHA3 190628Z 17013KT 29/17 A2987 RMK A01 T02930173  RH  048%=      5-min Rain = 0
KHA3 190629Z 16015KT 29/17 A2987 RMK A01 T02920173  RH  048%=      5-min Rain = 0
KHA3 190630Z 16014KT 29/17 A2987 RMK A01 T02920172  RH  048%=      5-min Rain = 0
KHA3 190631Z 16014KT 29/17 A2987 RMK A01 T02920172  RH  048%=      5-min Rain = 0
KHA3 190632Z 16015KT 29/17 A2987 RMK A01 T02920172  RH  048%=      5-min Rain = 0
KHA3 190633Z 17013KT 29/17 A2987 RMK A01 T02930172  RH  048%=      5-min Rain = 0
KHA3 190634Z 17013KT 29/17 A2987 RMK A01 T02930173  RH  048%=      5-min Rain = 0
KHA3 190635Z 16013KT 29/17 A2987 RMK A01 T02920173  RH  049%=      5-min Rain = 0
KHA3 190636Z 16013KT 29/17 A2987 RMK A01 T02910173  RH  049%=      5-min Rain = 0
KHA3 190637Z 16013KT 29/17 A2987 RMK A01 T02900173  RH  049%=      5-min Rain = 0
KHA3 190638Z 16011KT 29/17 A2987 RMK A01 T02900173  RH  049%=      5-min Rain = 0
KHA3 190639Z 17013KT 29/17 A2987 RMK A01 T02890172  RH  049%=      5-min Rain = 0
KHA3 190640Z 17014KT 29/17 A2987 RMK A01 T02890173  RH  049%=      5-min Rain = 0
KHA3 190641Z 16013KT 29/17 A2987 RMK A01 T02890172  RH  049%=      5-min Rain = 0
KHA3 190642Z 17013KT 29/17 A2987 RMK A01 T02890172  RH  049%=      5-min Rain = 0
KHA3 190643Z 16014KT 29/17 A2987 RMK A01 T02900173  RH  049%=      5-min Rain = 0
KHA3 190644Z 16013KT 29/17 A2987 RMK A01 T02890172  RH  049%=      5-min Rain = 0
KHA3 190645Z 17014KT 29/17 A2987 RMK A01 T02890172  RH  049%=      5-min Rain = 0
KHA3 190646Z 16013KT 29/17 A2987 RMK A01 T02890172  RH  049%=      5-min Rain = 0
KHA3 190647Z 16013KT 29/17 A2987 RMK A01 T02890173  RH  049%=      5-min Rain = 0
KHA3 190648Z 17012KT 29/17 A2987 RMK A01 T02890173  RH  049%=      5-min Rain = 0
KHA3 190649Z 17013KT 29/17 A2987 RMK A01 T02880173  RH  050%=      5-min Rain = 0
KHA3 190650Z 17013KT 29/17 A2987 RMK A01 T02880173  RH  050%=      5-min Rain = 0
KHA3 190651Z 17013KT 29/17 A2987 RMK A01 T02880173  RH  050%=      5-min Rain = 0
KHA3 190652Z 17012KT 29/17 A2987 RMK A01 T02880173  RH  050%=      5-min Rain = 0
KHA3 190653Z 17014KT 29/17 A2987 RMK A01 T02880172  RH  050%=      5-min Rain = 0
KHA3 190654Z 17015KT 29/17 A2987 RMK A01 T02880173  RH  050%=      5-min Rain = 0
KHA3 190655Z 17013KT 29/17 A2987 RMK A01 T02870172  RH  050%=      5-min Rain = 0
KHA3 190656Z 17013KT 29/17 A2987 RMK A01 T02880172  RH  050%=      5-min Rain = 0
KHA3 190657Z 17012KT 29/17 A2987 RMK A01 T02880173  RH  050%=      5-min Rain = 0
KHA3 190658Z 17013KT 29/17 A2987 RMK A01 T02870172  RH  050%=      5-min Rain = 0
KHA3 190659Z 17014KT 29/17 A2987 RMK A01 T02870172  RH  050%=      5-min Rain = 0
KHA3 190700Z 17014KT 29/17 A2987 RMK A01 T02870172  RH  050%=      5-min Rain = 0
KHA3 190701Z 17013KT 29/17 A2987 RMK A01 T02870172  RH  050%=      5-min Rain = 0
KHA3 190702Z 17014KT 29/17 A2987 RMK A01 T02870172  RH  050%=      5-min Rain = 0
KHA3 190703Z 17013KT 29/17 A2987 RMK A01 T02870173  RH  050%=      5-min Rain = 0
KHA3 190704Z 16013KT 29/17 A2987 RMK A01 T02870173  RH  050%=      5-min Rain = 0
KHA3 190705Z 17014KT 29/17 A2987 RMK A01 T02860172  RH  050%=      5-min Rain = 0
KHA3 190706Z 17014KT 29/17 A2987 RMK A01 T02860172  RH  050%=      5-min Rain = 0
KHA3 190707Z 17015KT 29/17 A2987 RMK A01 T02860172  RH  050%=      5-min Rain = 0
KHA3 190708Z 17013KT 29/17 A2987 RMK A01 T02860172  RH  050%=      5-min Rain = 0
KHA3 190709Z 17012KT 29/17 A2987 RMK A01 T02860173  RH  050%=      5-min Rain = 0
KHA3 190710Z 17012KT 29/17 A2987 RMK A01 T02850173  RH  050%=      5-min Rain = 0
KHA3 190711Z 17013KT 29/17 A2987 RMK A01 T02850172  RH  051%=      5-min Rain = 0
KHA3 190712Z 17012KT 28/17 A2987 RMK A01 T02840172  RH  051%=      5-min Rain = 0
KHA3 190713Z 17012KT 28/17 A2987 RMK A01 T02840172  RH  051%=      5-min Rain = 0
KHA3 190714Z 17013KT 28/17 A2987 RMK A01 T02840172  RH  051%=      5-min Rain = 0
KHA3 190715Z 17012KT 28/17 A2987 RMK A01 T02840172  RH  051%=      5-min Rain = 0
KHA3 190716Z 17013KT 28/17 A2987 RMK A01 T02830172  RH  051%=      5-min Rain = 0
KHA3 190717Z 17012KT 28/17 A2987 RMK A01 T02830172  RH  051%=      5-min Rain = 0
KHA3 190718Z 17013KT 28/17 A2987 RMK A01 T02830172  RH  051%=      5-min Rain = 0
KHA3 190719Z 17013KT 28/17 A2987 RMK A01 T02830172  RH  051%=      5-min Rain = 0
KHA3 190720Z 17013KT 28/17 A2987 RMK A01 T02830172  RH  051%=      5-min Rain = 0
KHA3 190721Z 17012KT 28/17 A2987 RMK A01 T02830172  RH  051%=      5-min Rain = 0
KHA3 190722Z 17011KT 28/17 A2987 RMK A01 T02830172  RH  051%=      5-min Rain = 0
KHA3 190723Z 17012KT 28/17 A2987 RMK A01 T02820173  RH  051%=      5-min Rain = 0
KHA3 190724Z 17013KT 28/17 A2987 RMK A01 T02810172  RH  052%=      5-min Rain = 0
KHA3 190725Z 17011KT 28/17 A2987 RMK A01 T02810172  RH  052%=      5-min Rain = 0
KHA3 190726Z 17013KT 28/17 A2987 RMK A01 T02810172  RH  052%=      5-min Rain = 0
KHA3 190727Z 17013KT 28/17 A2987 RMK A01 T02810172  RH  051%=      5-min Rain = 0
KHA3 190728Z 17012KT 28/17 A2987 RMK A01 T02820172  RH  051%=      5-min Rain = 0
KHA3 190729Z 17012KT 28/17 A2987 RMK A01 T02810172  RH  052%=      5-min Rain = 0
KHA3 190730Z 17012KT 28/17 A2987 RMK A01 T02810173  RH  052%=      5-min Rain = 0
KHA3 190731Z 17013KT 28/17 A2987 RMK A01 T02800172  RH  052%=      5-min Rain = 0
KHA3 190732Z 17014KT 28/17 A2987 RMK A01 T02800172  RH  052%=      5-min Rain = 0
KHA3 190733Z 17013KT 28/17 A2987 RMK A01 T02810172  RH  052%=      5-min Rain = 0
KHA3 190734Z 17012KT 28/17 A2987 RMK A01 T02810172  RH  052%=      5-min Rain = 0
KHA3 190735Z 17013KT 28/17 A2987 RMK A01 T02800172  RH  052%=      5-min Rain = 0
KHA3 190736Z 17013KT 28/17 A2987 RMK A01 T02800172  RH  052%=      5-min Rain = 0
KHA3 190737Z 17012KT 28/17 A2987 RMK A01 T02800173  RH  052%=      5-min Rain = 0
KHA3 190738Z 17010KT 28/17 A2987 RMK A01 T02790172  RH  052%=      5-min Rain = 0
KHA3 190739Z 17012KT 28/17 A2987 RMK A01 T02790173  RH  052%=      5-min Rain = 0
KHA3 190740Z 17011KT 28/17 A2987 RMK A01 T02780172  RH  052%=      5-min Rain = 0
KHA3 190741Z 17012KT 28/17 A2987 RMK A01 T02780172  RH  052%=      5-min Rain = 0
KHA3 190742Z 17011KT 28/17 A2987 RMK A01 T02780172  RH  052%=      5-min Rain = 0
KHA3 190743Z 18013KT 28/17 A2987 RMK A01 T02780172  RH  053%=      5-min Rain = 0
KHA3 190744Z 18013KT 28/17 A2987 RMK A01 T02780172  RH  052%=      5-min Rain = 0
KHA3 190745Z 17012KT 28/17 A2987 RMK A01 T02790172  RH  052%=      5-min Rain = 0
KHA3 190746Z 17013KT 28/17 A2987 RMK A01 T02790172  RH  052%=      5-min Rain = 0
KHA3 190747Z 17013KT 28/17 A2987 RMK A01 T02790172  RH  052%=      5-min Rain = 0
KHA3 190748Z 17012KT 28/17 A2987 RMK A01 T02790172  RH  052%=      5-min Rain = 0
KHA3 190749Z 18012KT 28/17 A2987 RMK A01 T02790172  RH  052%=      5-min Rain = 0
KHA3 190750Z 18012KT 28/17 A2987 RMK A01 T02780172  RH  052%=      5-min Rain = 0
KHA3 190751Z 17012KT 28/17 A2987 RMK A01 T02790173  RH  052%=      5-min Rain = 0
KHA3 190752Z 18013KT 28/17 A2987 RMK A01 T02780172  RH  052%=      5-min Rain = 0
KHA3 190753Z 18012KT 28/17 A2987 RMK A01 T02790172  RH  052%=      5-min Rain = 0
KHA3 190754Z 18012KT 28/17 A2987 RMK A01 T02790172  RH  052%=      5-min Rain = 0
KHA3 190755Z 18013KT 28/17 A2987 RMK A01 T02790172  RH  052%=      5-min Rain = 0
KHA3 190756Z 18013KT 28/17 A2987 RMK A01 T02790172  RH  052%=      5-min Rain = 0
KHA3 190757Z 18012KT 28/17 A2987 RMK A01 T02790172  RH  052%=      5-min Rain = 0
KHA3 190758Z 18012KT 28/17 A2987 RMK A01 T02790172  RH  052%=      5-min Rain = 0
KHA3 190759Z 18013KT 28/17 A2987 RMK A01 T02790172  RH  052%=      5-min Rain = 0
KHA3 190800Z 18012KT 28/17 A2987 RMK A01 T02790172  RH  052%=      5-min Rain = 0
KHA3 190801Z 18012KT 28/17 A2987 RMK A01 T02790172  RH  052%=      5-min Rain = 0
KHA3 190802Z 18011KT 28/17 A2987 RMK A01 T02790172  RH  052%=      5-min Rain = 0
KHA3 190803Z 18011KT 28/17 A2987 RMK A01 T02780172  RH  052%=      5-min Rain = 0
KHA3 190804Z 18012KT 28/17 A2987 RMK A01 T02780172  RH  053%=      5-min Rain = 0
KHA3 190805Z 18011KT 28/17 A2987 RMK A01 T02780172  RH  053%=      5-min Rain = 0
KHA3 190806Z 18012KT 28/17 A2987 RMK A01 T02770172  RH  053%=      5-min Rain = 0
KHA3 190807Z 18011KT 28/17 A2987 RMK A01 T02780172  RH  053%=      5-min Rain = 0
KHA3 190808Z 18013KT 28/17 A2987 RMK A01 T02770172  RH  053%=      5-min Rain = 0
KHA3 190809Z 18012KT 28/17 A2987 RMK A01 T02770172  RH  053%=      5-min Rain = 0
KHA3 190810Z 18012KT 28/17 A2987 RMK A01 T02770172  RH  053%=      5-min Rain = 0
KHA3 190811Z 18012KT 28/17 A2987 RMK A01 T02770172  RH  053%=      5-min Rain = 0
KHA3 190812Z 19012KT 28/17 A2987 RMK A01 T02770172  RH  053%=      5-min Rain = 0
KHA3 190813Z 18012KT 28/17 A2987 RMK A01 T02770172  RH  053%=      5-min Rain = 0
KHA3 190814Z 18011KT 28/17 A2987 RMK A01 T02760172  RH  053%=      5-min Rain = 0
KHA3 190815Z 18012KT 28/17 A2987 RMK A01 T02760172  RH  053%=      5-min Rain = 0
KHA3 190816Z 18012KT 28/17 A2987 RMK A01 T02760172  RH  053%=      5-min Rain = 0
KHA3 190817Z 19011KT 28/17 A2987 RMK A01 T02760172  RH  053%=      5-min Rain = 0
KHA3 190818Z 18011KT 28/17 A2987 RMK A01 T02760172  RH  053%=      5-min Rain = 0
KHA3 190819Z 19012KT 28/17 A2987 RMK A01 T02750173  RH  054%=      5-min Rain = 0
KHA3 190820Z 18012KT 28/17 A2987 RMK A01 T02750172  RH  054%=      5-min Rain = 0
KHA3 190821Z 18012KT 28/17 A2987 RMK A01 T02750172  RH  053%=      5-min Rain = 0
KHA3 190822Z 19013KT 28/17 A2987 RMK A01 T02750172  RH  053%=      5-min Rain = 0
KHA3 190823Z 19012KT 28/17 A2987 RMK A01 T02760173  RH  053%=      5-min Rain = 0
KHA3 190824Z 19012KT 28/17 A2988 RMK A01 T02760172  RH  053%=      5-min Rain = 0
KHA3 190825Z 19012KT 28/17 A2988 RMK A01 T02760173  RH  053%=      5-min Rain = 0
KHA3 190826Z 19013KT 28/17 A2988 RMK A01 T02750172  RH  053%=      5-min Rain = 0
KHA3 190827Z 18014KT 28/17 A2988 RMK A01 T02750172  RH  053%=      5-min Rain = 0
KHA3 190828Z 19013KT 28/17 A2988 RMK A01 T02760172  RH  053%=      5-min Rain = 0
KHA3 190829Z 19012KT 28/17 A2988 RMK A01 T02770173  RH  053%=      5-min Rain = 0
KHA3 190830Z 19012KT 28/17 A2988 RMK A01 T02760173  RH  053%=      5-min Rain = 0
KHA3 190831Z 19013KT 28/17 A2988 RMK A01 T02750173  RH  054%=      5-min Rain = 0
KHA3 190832Z 19013KT 28/17 A2988 RMK A01 T02750173  RH  054%=      5-min Rain = 0
KHA3 190833Z 19015KT 28/17 A2988 RMK A01 T02750172  RH  053%=      5-min Rain = 0
KHA3 190834Z 19012KT 28/17 A2988 RMK A01 T02760173  RH  053%=      5-min Rain = 0
KHA3 190835Z 19013KT 28/17 A2988 RMK A01 T02760173  RH  053%=      5-min Rain = 0
KHA3 190836Z 19013KT 28/17 A2988 RMK A01 T02760173  RH  053%=      5-min Rain = 0
KHA3 190837Z 19013KT 28/17 A2988 RMK A01 T02760173  RH  053%=      5-min Rain = 0
KHA3 190838Z 19013KT 28/17 A2988 RMK A01 T02750173  RH  053%=      5-min Rain = 0
KHA3 190839Z 19014KT 28/17 A2988 RMK A01 T02760173  RH  054%=      5-min Rain = 0
KHA3 190840Z 19014KT 28/17 A2988 RMK A01 T02760173  RH  054%=      5-min Rain = 0
KHA3 190841Z 19013KT 28/17 A2988 RMK A01 T02760173  RH  053%=      5-min Rain = 0
KHA3 190842Z 19014KT 28/17 A2988 RMK A01 T02760173  RH  054%=      5-min Rain = 0
KHA3 190843Z 19013KT 28/17 A2988 RMK A01 T02750173  RH  054%=      5-min Rain = 0
KHA3 190844Z 19013KT 28/17 A2988 RMK A01 T02750173  RH  054%=      5-min Rain = 0
KHA3 190845Z 19015KT 28/17 A2988 RMK A01 T02750173  RH  054%=      5-min Rain = 0
KHA3 190846Z 19013KT 28/17 A2988 RMK A01 T02750173  RH  054%=      5-min Rain = 0
KHA3 190847Z 19013KT 28/17 A2988 RMK A01 T02750173  RH  054%=      5-min Rain = 0
KHA3 190848Z 19015KT 28/17 A2988 RMK A01 T02750173  RH  054%=      5-min Rain = 0
KHA3 190849Z 19014KT 28/17 A2988 RMK A01 T02750173  RH  054%=      5-min Rain = 0
KHA3 190850Z 19013KT 28/17 A2988 RMK A01 T02750173  RH  054%=      5-min Rain = 0
KHA3 190851Z 18014KT 28/17 A2988 RMK A01 T02750174  RH  054%=      5-min Rain = 0
KHA3 190852Z 19014KT 28/17 A2988 RMK A01 T02750174  RH  054%=      5-min Rain = 0
KHA3 190853Z 19014KT 28/17 A2988 RMK A01 T02750174  RH  054%=      5-min Rain = 0
KHA3 190854Z 19015KT 28/17 A2987 RMK A01 T02750174  RH  054%=      5-min Rain = 0
KHA3 190855Z 19014KT 28/17 A2987 RMK A01 T02750174  RH  054%=      5-min Rain = 0
KHA3 190856Z 19015KT 28/17 A2987 RMK A01 T02750174  RH  054%=      5-min Rain = 0
KHA3 190857Z 19015KT 28/18 A2987 RMK A01 T02760175  RH  054%=      5-min Rain = 0
KHA3 190858Z 19014KT 28/17 A2987 RMK A01 T02760174  RH  054%=      5-min Rain = 0
KHA3 190859Z 19014KT 28/17 A2987 RMK A01 T02760174  RH  054%=      5-min Rain = 0
KHA3 190900Z 19015KT 28/17 A2987 RMK A01 T02760174  RH  054%=      5-min Rain = 0
KHA3 190901Z 19014KT 28/18 A2987 RMK A01 T02760175  RH  054%=      5-min Rain = 0
KHA3 190902Z 19014KT 28/18 A2987 RMK A01 T02760175  RH  054%=      5-min Rain = 0
KHA3 190903Z 19013KT 28/18 A2987 RMK A01 T02760175  RH  054%=      5-min Rain = 0
KHA3 190904Z 19013KT 28/18 A2987 RMK A01 T02750175  RH  054%=      5-min Rain = 0
KHA3 190905Z 19012KT 28/18 A2987 RMK A01 T02750175  RH  054%=      5-min Rain = 0
KHA3 190906Z 19013KT 27/18 A2987 RMK A01 T02740175  RH  055%=      5-min Rain = 0
KHA3 190907Z 19014KT 27/18 A2987 RMK A01 T02730175  RH  055%=      5-min Rain = 0
KHA3 190908Z 19014KT 27/18 A2987 RMK A01 T02730175  RH  055%=      5-min Rain = 0
KHA3 190909Z 19014KT 27/18 A2987 RMK A01 T02740175  RH  055%=      5-min Rain = 0
KHA3 190910Z 19015KT 27/18 A2987 RMK A01 T02740175  RH  055%=      5-min Rain = 0
KHA3 190911Z 19014KT 28/18 A2987 RMK A01 T02750175  RH  054%=      5-min Rain = 0
KHA3 190912Z 19014KT 28/18 A2988 RMK A01 T02750176  RH  055%=      5-min Rain = 0
KHA3 190913Z 19014KT 27/18 A2988 RMK A01 T02740176  RH  055%=      5-min Rain = 0
KHA3 190914Z 19014KT 27/18 A2988 RMK A01 T02740176  RH  055%=      5-min Rain = 0
KHA3 190915Z 19013KT 27/18 A2988 RMK A01 T02740176  RH  055%=      5-min Rain = 0
KHA3 190916Z 19014KT 27/18 A2988 RMK A01 T02740176  RH  055%=      5-min Rain = 0
KHA3 190917Z 19016KT 27/18 A2988 RMK A01 T02740176  RH  055%=      5-min Rain = 0
KHA3 190918Z 19013KT 27/18 A2988 RMK A01 T02740176  RH  055%=      5-min Rain = 0
KHA3 190919Z 19014KT 27/18 A2988 RMK A01 T02740176  RH  055%=      5-min Rain = 0
KHA3 190920Z 19015KT 27/18 A2988 RMK A01 T02740177  RH  055%=      5-min Rain = 0
KHA3 190921Z 19013KT 27/18 A2988 RMK A01 T02740177  RH  055%=      5-min Rain = 0
KHA3 190922Z 19013KT 27/18 A2988 RMK A01 T02730177  RH  056%=      5-min Rain = 0
KHA3 190923Z 19013KT 27/18 A2988 RMK A01 T02730177  RH  056%=      5-min Rain = 0
KHA3 190924Z 19013KT 27/18 A2988 RMK A01 T02720177  RH  056%=      5-min Rain = 0
KHA3 190925Z 19015G20KT 27/18 A2988 RMK A01 T02720177  RH  056%=      5-min Rain = 0
KHA3 190926Z 19014KT 27/18 A2988 RMK A01 T02720177  RH  056%=      5-min Rain = 0
KHA3 190927Z 19014KT 27/18 A2988 RMK A01 T02720177  RH  056%=      5-min Rain = 0
KHA3 190928Z 19013KT 27/18 A2988 RMK A01 T02720178  RH  056%=      5-min Rain = 0
KHA3 190929Z 19015KT 27/18 A2988 RMK A01 T02720178  RH  056%=      5-min Rain = 0
KHA3 190930Z 19015KT 27/18 A2988 RMK A01 T02720178  RH  056%=      5-min Rain = 0
KHA3 190931Z 19015KT 27/18 A2988 RMK A01 T02720178  RH  056%=      5-min Rain = 0
KHA3 190932Z 19014KT 27/18 A2988 RMK A01 T02720178  RH  056%=      5-min Rain = 0
KHA3 190933Z 19015KT 27/18 A2988 RMK A01 T02720178  RH  056%=      5-min Rain = 0
KHA3 190934Z 19013KT 27/18 A2988 RMK A01 T02720178  RH  057%=      5-min Rain = 0
KHA3 190935Z 19014KT 27/18 A2988 RMK A01 T02710179  RH  057%=      5-min Rain = 0
KHA3 190936Z 19016KT 27/18 A2988 RMK A01 T02710178  RH  057%=      5-min Rain = 0
KHA3 190937Z 19015KT 27/18 A2988 RMK A01 T02710179  RH  057%=      5-min Rain = 0
KHA3 190938Z 19013KT 27/18 A2988 RMK A01 T02720179  RH  057%=      5-min Rain = 0
KHA3 190939Z 19013KT 27/18 A2988 RMK A01 T02710179  RH  057%=      5-min Rain = 0
KHA3 190940Z 19014KT 27/18 A2988 RMK A01 T02710179  RH  057%=      5-min Rain = 0
KHA3 190941Z 19013KT 27/18 A2988 RMK A01 T02700179  RH  057%=      5-min Rain = 0
KHA3 190942Z 19015KT 27/18 A2988 RMK A01 T02700179  RH  058%=      5-min Rain = 0
KHA3 190943Z 19014KT 27/18 A2988 RMK A01 T02700179  RH  058%=      5-min Rain = 0
KHA3 190944Z 19014KT 27/18 A2988 RMK A01 T02690179  RH  058%=      5-min Rain = 0
KHA3 190945Z 19014KT 27/18 A2988 RMK A01 T02690180  RH  058%=      5-min Rain = 0
KHA3 190946Z 19013KT 27/18 A2988 RMK A01 T02690179  RH  058%=      5-min Rain = 0
KHA3 190947Z 19012KT 27/18 A2988 RMK A01 T02690180  RH  058%=      5-min Rain = 0
KHA3 190948Z 19013KT 27/18 A2988 RMK A01 T02680180  RH  058%=      5-min Rain = 0
KHA3 190949Z 19015KT 27/18 A2988 RMK A01 T02680180  RH  059%=      5-min Rain = 0
KHA3 190950Z 19012KT 27/18 A2988 RMK A01 T02680180  RH  058%=      5-min Rain = 0
KHA3 190951Z 19016KT 27/18 A2988 RMK A01 T02690180  RH  058%=      5-min Rain = 0
KHA3 190952Z 19014KT 27/18 A2988 RMK A01 T02680180  RH  058%=      5-min Rain = 0
KHA3 190953Z 19014KT 27/18 A2988 RMK A01 T02680180  RH  059%=      5-min Rain = 0
KHA3 190954Z 19014KT 27/18 A2988 RMK A01 T02680181  RH  059%=      5-min Rain = 0
KHA3 190955Z 19012KT 27/18 A2988 RMK A01 T02680181  RH  059%=      5-min Rain = 0
KHA3 190956Z 19015KT 27/18 A2988 RMK A01 T02670181  RH  059%=      5-min Rain = 0
KHA3 190957Z 19013KT 27/18 A2988 RMK A01 T02680181  RH  059%=      5-min Rain = 0
KHA3 190958Z 19015KT 27/18 A2988 RMK A01 T02670181  RH  059%=      5-min Rain = 0
KHA3 190959Z 19014KT 27/18 A2988 RMK A01 T02670181  RH  059%=      5-min Rain = 0
KHA3 191000Z 19014KT 27/18 A2988 RMK A01 T02670182  RH  059%=      5-min Rain = 0
KHA3 191001Z 19015KT 27/18 A2988 RMK A01 T02680182  RH  059%=      5-min Rain = 0
KHA3 191002Z 19014KT 27/18 A2988 RMK A01 T02680182  RH  059%=      5-min Rain = 0
KHA3 191003Z 19015KT 27/18 A2988 RMK A01 T02680182  RH  059%=      5-min Rain = 0
KHA3 191004Z 19015KT 27/18 A2988 RMK A01 T02680182  RH  059%=      5-min Rain = 0
KHA3 191005Z 18014KT 27/18 A2988 RMK A01 T02680182  RH  059%=      5-min Rain = 0
KHA3 191006Z 18013KT 27/18 A2988 RMK A01 T02680183  RH  060%=      5-min Rain = 0
KHA3 191007Z 19015KT 27/18 A2988 RMK A01 T02670183  RH  060%=      5-min Rain = 0
KHA3 191008Z 18014KT 27/18 A2988 RMK A01 T02670183  RH  060%=      5-min Rain = 0
KHA3 191009Z 18014KT 27/18 A2988 RMK A01 T02670183  RH  060%=      5-min Rain = 0
KHA3 191010Z 18012KT 27/18 A2988 RMK A01 T02670183  RH  060%=      5-min Rain = 0
KHA3 191011Z 19014KT 27/18 A2988 RMK A01 T02660183  RH  060%=      5-min Rain = 0
KHA3 191012Z 19013KT 27/18 A2988 RMK A01 T02650183  RH  061%=      5-min Rain = 0
KHA3 191013Z 19014KT 27/18 A2988 RMK A01 T02650184  RH  061%=      5-min Rain = 0
KHA3 191014Z 19015KT 27/18 A2988 RMK A01 T02650184  RH  061%=      5-min Rain = 0
KHA3 191015Z 19013KT 27/18 A2988 RMK A01 T02650184  RH  061%=      5-min Rain = 0
KHA3 191016Z 18015KT 27/18 A2988 RMK A01 T02660184  RH  061%=      5-min Rain = 0
KHA3 191017Z 18014KT 27/18 A2988 RMK A01 T02650184  RH  061%=      5-min Rain = 0
KHA3 191018Z 19013KT 27/19 A2988 RMK A01 T02650185  RH  061%=      5-min Rain = 0
KHA3 191019Z 19014KT 27/19 A2988 RMK A01 T02650185  RH  061%=      5-min Rain = 0
KHA3 191020Z 18014KT 26/19 A2988 RMK A01 T02640185  RH  062%=      5-min Rain = 0
KHA3 191021Z 19014KT 26/19 A2988 RMK A01 T02640185  RH  062%=      5-min Rain = 0
KHA3 191022Z 19014KT 26/19 A2988 RMK A01 T02640185  RH  062%=      5-min Rain = 0
KHA3 191023Z 19014KT 26/19 A2988 RMK A01 T02640186  RH  062%=      5-min Rain = 0
KHA3 191024Z 18015KT 26/19 A2988 RMK A01 T02640186  RH  062%=      5-min Rain = 0
KHA3 191025Z 19015KT 26/19 A2988 RMK A01 T02640186  RH  062%=      5-min Rain = 0
KHA3 191026Z 19015G21KT 26/19 A2988 RMK A01 T02640186  RH  062%=      5-min Rain = 0
KHA3 191027Z 19015KT 27/19 A2988 RMK A01 T02650187  RH  062%=      5-min Rain = 0
KHA3 191028Z 19015KT 27/19 A2988 RMK A01 T02660187  RH  062%=      5-min Rain = 0
KHA3 191029Z 19015KT 27/19 A2988 RMK A01 T02650187  RH  062%=      5-min Rain = 0
KHA3 191030Z 19015KT 27/19 A2988 RMK A01 T02650187  RH  062%=      5-min Rain = 0
KHA3 191031Z 18014KT 27/19 A2988 RMK A01 T02650187  RH  062%=      5-min Rain = 0
KHA3 191032Z 19015KT 27/19 A2988 RMK A01 T02650187  RH  062%=      5-min Rain = 0
KHA3 191033Z 19014KT 27/19 A2988 RMK A01 T02650188  RH  063%=      5-min Rain = 0
KHA3 191034Z 19015KT 26/19 A2988 RMK A01 T02640188  RH  063%=      5-min Rain = 0
KHA3 191035Z 19015KT 26/19 A2988 RMK A01 T02640188  RH  063%=      5-min Rain = 0
KHA3 191036Z 18014KT 26/19 A2988 RMK A01 T02640188  RH  063%=      5-min Rain = 0
KHA3 191037Z 18015KT 26/19 A2988 RMK A01 T02640189  RH  063%=      5-min Rain = 0
KHA3 191038Z 18015KT 26/19 A2988 RMK A01 T02640189  RH  063%=      5-min Rain = 0
KHA3 191039Z 18013KT 26/19 A2988 RMK A01 T02640189  RH  063%=      5-min Rain = 0
KHA3 191040Z 18014KT 26/19 A2988 RMK A01 T02640189  RH  063%=      5-min Rain = 0
KHA3 191041Z 18015KT 26/19 A2988 RMK A01 T02640189  RH  064%=      5-min Rain = 0
KHA3 191042Z 18014KT 26/19 A2988 RMK A01 T02640189  RH  064%=      5-min Rain = 0
KHA3 191043Z 18015KT 26/19 A2988 RMK A01 T02640189  RH  064%=      5-min Rain = 0
KHA3 191044Z 18014KT 26/19 A2988 RMK A01 T02640190  RH  064%=      5-min Rain = 0
KHA3 191045Z 18015KT 26/19 A2989 RMK A01 T02640190  RH  064%=      5-min Rain = 0
KHA3 191046Z 18014KT 26/19 A2988 RMK A01 T02640190  RH  064%=      5-min Rain = 0
KHA3 191047Z 18015KT 26/19 A2988 RMK A01 T02630191  RH  064%=      5-min Rain = 0
KHA3 191048Z 18014KT 26/19 A2989 RMK A01 T02630191  RH  064%=      5-min Rain = 0
KHA3 191049Z 18015KT 26/19 A2989 RMK A01 T02630191  RH  064%=      5-min Rain = 0
KHA3 191050Z 18015KT 26/19 A2989 RMK A01 T02640191  RH  064%=      5-min Rain = 0
KHA3 191051Z 18014KT 26/19 A2989 RMK A01 T02640192  RH  064%=      5-min Rain = 0
KHA3 191052Z 19015G21KT 26/19 A2988 RMK A01 T02640192  RH  065%=      5-min Rain = 0
KHA3 191053Z 19015KT 26/19 A2989 RMK A01 T02640192  RH  065%=      5-min Rain = 0
KHA3 191054Z 19015G20KT 27/19 A2989 RMK A01 T02650193  RH  064%=      5-min Rain = 0
KHA3 191055Z 18014KT 27/19 A2989 RMK A01 T02650193  RH  065%=      5-min Rain = 0
KHA3 191056Z 19015KT 27/19 A2989 RMK A01 T02650193  RH  065%=      5-min Rain = 0
KHA3 191057Z 19014KT 26/19 A2989 RMK A01 T02640193  RH  065%=      5-min Rain = 0
KHA3 191058Z 18014KT 26/19 A2989 RMK A01 T02640194  RH  065%=      5-min Rain = 0
KHA3 191059Z 18015G20KT 26/19 A2989 RMK A01 T02640194  RH  065%=      5-min Rain = 0
KHA3 191100Z 19014KT 26/19 A2989 RMK A01 T02640194  RH  065%=      5-min Rain = 0
KHA3 191101Z 18014KT 26/19 A2988 RMK A01 T02640194  RH  065%=      5-min Rain = 0
KHA3 191102Z 19015KT 26/19 A2988 RMK A01 T02640194  RH  066%=      5-min Rain = 0
KHA3 191103Z 18014KT 26/20 A2988 RMK A01 T02640195  RH  066%=      5-min Rain = 0
KHA3 191104Z 19015KT 26/20 A2988 RMK A01 T02640195  RH  066%=      5-min Rain = 0
KHA3 191105Z 18014KT 26/20 A2988 RMK A01 T02640195  RH  066%=      5-min Rain = 0
KHA3 191106Z 18015KT 26/20 A2988 RMK A01 T02640195  RH  066%=      5-min Rain = 0
KHA3 191107Z 19013KT 26/20 A2989 RMK A01 T02640195  RH  066%=      5-min Rain = 0
KHA3 191108Z 19012KT 26/20 A2989 RMK A01 T02640195  RH  066%=      5-min Rain = 0
KHA3 191109Z 18014KT 26/20 A2989 RMK A01 T02630196  RH  066%=      5-min Rain = 0
KHA3 191110Z 18014KT 26/20 A2989 RMK A01 T02630196  RH  066%=      5-min Rain = 0
KHA3 191111Z 19014KT 26/20 A2989 RMK A01 T02630196  RH  066%=      5-min Rain = 0
KHA3 191112Z 19015KT 26/20 A2989 RMK A01 T02630196  RH  067%=      5-min Rain = 0
KHA3 191113Z 19015KT 26/20 A2989 RMK A01 T02630196  RH  066%=      5-min Rain = 0
KHA3 191114Z 19015KT 26/20 A2989 RMK A01 T02640196  RH  066%=      5-min Rain = 0
KHA3 191115Z 18014KT 26/20 A2989 RMK A01 T02640196  RH  066%=      5-min Rain = 0
KHA3 191116Z 18013KT 26/20 A2989 RMK A01 T02630197  RH  067%=      5-min Rain = 0
KHA3 191117Z 18015KT 26/20 A2989 RMK A01 T02630197  RH  067%=      5-min Rain = 0
KHA3 191118Z 18014KT 26/20 A2989 RMK A01 T02630197  RH  067%=      5-min Rain = 0
KHA3 191119Z 19016KT 26/20 A2989 RMK A01 T02630197  RH  067%=      5-min Rain = 0
KHA3 191120Z 19014KT 26/20 A2989 RMK A01 T02640197  RH  067%=      5-min Rain = 0
KHA3 191121Z 19014KT 26/20 A2989 RMK A01 T02630197  RH  067%=      5-min Rain = 0
KHA3 191122Z 18014KT 26/20 A2989 RMK A01 T02630197  RH  067%=      5-min Rain = 0
KHA3 191123Z 18014KT 26/20 A2989 RMK A01 T02630197  RH  067%=      5-min Rain = 0
KHA3 191124Z 18015KT 26/20 A2989 RMK A01 T02630197  RH  067%=      5-min Rain = 0
KHA3 191125Z 18014KT 26/20 A2989 RMK A01 T02630197  RH  067%=      5-min Rain = 0
KHA3 191126Z 19015KT 26/20 A2989 RMK A01 T02630197  RH  067%=      5-min Rain = 0
KHA3 191127Z 19014KT 26/20 A2989 RMK A01 T02620198  RH  067%=      5-min Rain = 0
KHA3 191128Z 19013KT 26/20 A2989 RMK A01 T02620198  RH  068%=      5-min Rain = 0
KHA3 191129Z 19014KT 26/20 A2989 RMK A01 T02620198  RH  068%=      5-min Rain = 0
KHA3 191130Z 19017KT 26/20 A2989 RMK A01 T02610198  RH  068%=      5-min Rain = 0
KHA3 191131Z 18015KT 26/20 A2989 RMK A01 T02620198  RH  068%=      5-min Rain = 0
KHA3 191132Z 18015KT 26/20 A2989 RMK A01 T02620198  RH  068%=      5-min Rain = 0
KHA3 191133Z 18015KT 26/20 A2989 RMK A01 T02620198  RH  068%=      5-min Rain = 0
KHA3 191134Z 18016KT 26/20 A2989 RMK A01 T02620198  RH  068%=      5-min Rain = 0
KHA3 191135Z 18015KT 26/20 A2989 RMK A01 T02630199  RH  068%=      5-min Rain = 0
KHA3 191136Z 19014KT 26/20 A2989 RMK A01 T02620198  RH  068%=      5-min Rain = 0
KHA3 191137Z 19014KT 26/20 A2989 RMK A01 T02620198  RH  068%=      5-min Rain = 0
KHA3 191138Z 19014G19KT 26/20 A2989 RMK A01 T02610198  RH  068%=      5-min Rain = 0
KHA3 191139Z 19016KT 26/20 A2989 RMK A01 T02610199  RH  069%=      5-min Rain = 0
KHA3 191140Z 19018KT 26/20 A2989 RMK A01 T02610199  RH  069%=      5-min Rain = 0
KHA3 191141Z 19017KT 26/20 A2989 RMK A01 T02620199  RH  068%=      5-min Rain = 0
KHA3 191142Z 19016KT 26/20 A2989 RMK A01 T02620199  RH  068%=      5-min Rain = 0
KHA3 191143Z 19015KT 26/20 A2989 RMK A01 T02630200  RH  068%=      5-min Rain = 0
KHA3 191144Z 19018KT 26/20 A2989 RMK A01 T02630200  RH  068%=      5-min Rain = 0
KHA3 191145Z 19016KT 26/20 A2989 RMK A01 T02630200  RH  068%=      5-min Rain = 0
KHA3 191146Z 19015KT 26/20 A2989 RMK A01 T02630200  RH  068%=      5-min Rain = 0
KHA3 191147Z 19017KT 26/20 A2989 RMK A01 T02620200  RH  069%=      5-min Rain = 0
KHA3 191148Z 19016KT 26/20 A2989 RMK A01 T02620200  RH  069%=      5-min Rain = 0
KHA3 191149Z 18016KT 26/20 A2989 RMK A01 T02620200  RH  069%=      5-min Rain = 0
KHA3 191150Z 19016KT 26/20 A2989 RMK A01 T02620200  RH  069%=      5-min Rain = 0
KHA3 191151Z 19016KT 26/20 A2989 RMK A01 T02620200  RH  069%=      5-min Rain = 0
KHA3 191152Z 19014KT 26/20 A2989 RMK A01 T02620200  RH  069%=      5-min Rain = 0
KHA3 191153Z 19015KT 26/20 A2989 RMK A01 T02620201  RH  069%=      5-min Rain = 0
KHA3 191154Z 19015KT 26/20 A2989 RMK A01 T02620201  RH  069%=      5-min Rain = 0
KHA3 191155Z 19017KT 26/20 A2989 RMK A01 T02620201  RH  069%=      5-min Rain = 0
KHA3 191156Z 19015KT 26/20 A2989 RMK A01 T02620201  RH  069%=      5-min Rain = 0
KHA3 191157Z 19014KT 26/20 A2989 RMK A01 T02620201  RH  069%=      5-min Rain = 0
KHA3 191158Z 19015KT 26/20 A2989 RMK A01 T02630201  RH  069%=      5-min Rain = 0
KHA3 191159Z 19016KT 26/20 A2989 RMK A01 T02620201  RH  069%=      5-min Rain = 0
KHA3 191200Z 19014KT 26/20 A2989 RMK A01 T02630201  RH  069%=      5-min Rain = 0
KHA3 191201Z 19014KT 26/20 A2989 RMK A01 T02620201  RH  069%=      5-min Rain = 0
KHA3 191202Z 19014KT 26/20 A2989 RMK A01 T02620201  RH  069%=      5-min Rain = 0
KHA3 191203Z 19016KT 26/20 A2989 RMK A01 T02620202  RH  069%=      5-min Rain = 0
KHA3 191204Z 19017KT 26/20 A2989 RMK A01 T02620202  RH  069%=      5-min Rain = 0
KHA3 191205Z 19013KT 26/20 A2989 RMK A01 T02620202  RH  069%=      5-min Rain = 0
KHA3 191206Z 19013KT 26/20 A2989 RMK A01 T02620202  RH  069%=      5-min Rain = 0
KHA3 191207Z 19014G19KT 26/20 A2989 RMK A01 T02620202  RH  070%=      5-min Rain = 0
KHA3 191208Z 19016KT 26/20 A2989 RMK A01 T02620202  RH  070%=      5-min Rain = 0
KHA3 191209Z 19015KT 26/20 A2989 RMK A01 T02620202  RH  069%=      5-min Rain = 0
KHA3 191210Z 19016KT 26/20 A2989 RMK A01 T02620202  RH  069%=      5-min Rain = 0
KHA3 191211Z 19015KT 26/20 A299 RMK A01 T02630202  RH  069%=      5-min Rain = 0
KHA3 191212Z 19017KT 26/20 A299 RMK A01 T02630202  RH  069%=      5-min Rain = 0
KHA3 191213Z 19015KT 26/20 A299 RMK A01 T02630202  RH  069%=      5-min Rain = 0
KHA3 191214Z 19016KT 26/20 A299 RMK A01 T02630203  RH  069%=      5-min Rain = 0
KHA3 191215Z 19014KT 26/20 A299 RMK A01 T02630203  RH  069%=      5-min Rain = 0
KHA3 191216Z 18013KT 26/20 A299 RMK A01 T02640203  RH  069%=      5-min Rain = 0
KHA3 191217Z 19017KT 26/20 A299 RMK A01 T02630203  RH  070%=      5-min Rain = 0
KHA3 191218Z 19018KT 26/20 A299 RMK A01 T02630203  RH  069%=      5-min Rain = 0
KHA3 191219Z 19017KT 26/20 A299 RMK A01 T02640203  RH  069%=      5-min Rain = 0
KHA3 191220Z 19016KT 26/20 A299 RMK A01 T02640203  RH  069%=      5-min Rain = 0
KHA3 191221Z 19016KT 26/20 A299 RMK A01 T02640203  RH  069%=      5-min Rain = 0
KHA3 191222Z 19017KT 26/20 A299 RMK A01 T02640203  RH  069%=      5-min Rain = 0
KHA3 191223Z 19016KT 27/20 A299 RMK A01 T02650203  RH  069%=      5-min Rain = 0
KHA3 191224Z 19016KT 26/20 A299 RMK A01 T02640203  RH  069%=      5-min Rain = 0
KHA3 191225Z 19014KT 27/20 A299 RMK A01 T02650204  RH  069%=      5-min Rain = 0
KHA3 191226Z 19018KT 27/20 A299 RMK A01 T02650204  RH  069%=      5-min Rain = 0
KHA3 191227Z 19018KT 27/20 A299 RMK A01 T02650204  RH  069%=      5-min Rain = 0
KHA3 191228Z 19017KT 27/20 A299 RMK A01 T02650204  RH  069%=      5-min Rain = 0
KHA3 191229Z 19016KT 27/20 A299 RMK A01 T02660204  RH  069%=      5-min Rain = 0
KHA3 191230Z 19016KT 27/20 A299 RMK A01 T02660204  RH  069%=      5-min Rain = 0
KHA3 191231Z 19015KT 27/20 A299 RMK A01 T02660204  RH  069%=      5-min Rain = 0
KHA3 191232Z 19013KT 27/21 A299 RMK A01 T02660205  RH  069%=      5-min Rain = 0
KHA3 191233Z 19015G22KT 27/21 A299 RMK A01 T02660205  RH  069%=      5-min Rain = 0
KHA3 191234Z 19019KT 27/21 A299 RMK A01 T02660205  RH  069%=      5-min Rain = 0
KHA3 191235Z 19016KT 27/21 A299 RMK A01 T02670205  RH  069%=      5-min Rain = 0
KHA3 191236Z 19018KT 27/21 A299 RMK A01 T02670205  RH  069%=      5-min Rain = 0
KHA3 191237Z 19015KT 27/21 A299 RMK A01 T02670205  RH  069%=      5-min Rain = 0
KHA3 191238Z 19014KT 27/21 A299 RMK A01 T02670205  RH  069%=      5-min Rain = 0
KHA3 191239Z 19017KT 27/21 A299 RMK A01 T02670205  RH  069%=      5-min Rain = 0
KHA3 191240Z 19017KT 27/21 A299 RMK A01 T02670205  RH  069%=      5-min Rain = 0
KHA3 191241Z 19017KT 27/21 A299 RMK A01 T02680206  RH  069%=      5-min Rain = 0
KHA3 191242Z 19017KT 27/21 A299 RMK A01 T02680205  RH  069%=      5-min Rain = 0
KHA3 191243Z 19016KT 27/21 A299 RMK A01 T02680205  RH  069%=      5-min Rain = 0
KHA3 191244Z 19016G21KT 27/21 A299 RMK A01 T02680206  RH  069%=      5-min Rain = 0
KHA3 191245Z 19016KT 27/21 A299 RMK A01 T02680206  RH  068%=      5-min Rain = 0
KHA3 191246Z 19017KT 27/21 A299 RMK A01 T02690206  RH  068%=      5-min Rain = 0
KHA3 191247Z 19016KT 27/21 A299 RMK A01 T02690206  RH  068%=      5-min Rain = 0
KHA3 191248Z 19015KT 27/21 A299 RMK A01 T02690206  RH  068%=      5-min Rain = 0
KHA3 191249Z 19016KT 27/21 A299 RMK A01 T02690206  RH  068%=      5-min Rain = 0
KHA3 191250Z 19017KT 27/21 A299 RMK A01 T02690206  RH  068%=      5-min Rain = 0
KHA3 191251Z 19018KT 27/21 A299 RMK A01 T02690206  RH  068%=      5-min Rain = 0
KHA3 191252Z 19015KT 27/21 A299 RMK A01 T02690206  RH  068%=      5-min Rain = 0
KHA3 191253Z 19017KT 27/21 A299 RMK A01 T02700206  RH  068%=      5-min Rain = 0
KHA3 191254Z 19018KT 27/21 A299 RMK A01 T02700206  RH  068%=      5-min Rain = 0
KHA3 191255Z 19019KT 27/21 A299 RMK A01 T02700206  RH  068%=      5-min Rain = 0
KHA3 191256Z 19015KT 27/21 A299 RMK A01 T02710206  RH  068%=      5-min Rain = 0
KHA3 191257Z 19017KT 27/21 A299 RMK A01 T02710207  RH  068%=      5-min Rain = 0
KHA3 191258Z 19017KT 27/21 A299 RMK A01 T02710207  RH  068%=      5-min Rain = 0
KHA3 191259Z 19016KT 27/21 A299 RMK A01 T02710207  RH  068%=      5-min Rain = 0
KHA3 191300Z 19014KT 27/21 A299 RMK A01 T02710207  RH  068%=      5-min Rain = 0
KHA3 191301Z 19016G21KT 27/21 A299 RMK A01 T02720207  RH  068%=      5-min Rain = 0
KHA3 191302Z 19016KT 27/21 A299 RMK A01 T02720207  RH  068%=      5-min Rain = 0
KHA3 191303Z 19017KT 27/21 A299 RMK A01 T02720207  RH  067%=      5-min Rain = 0
KHA3 191304Z 19018KT 27/21 A299 RMK A01 T02730207  RH  067%=      5-min Rain = 0
KHA3 191305Z 19018G23KT 27/21 A299 RMK A01 T02730207  RH  067%=      5-min Rain = 0
KHA3 191306Z 19015KT 27/21 A299 RMK A01 T02720207  RH  068%=      5-min Rain = 0
KHA3 191307Z 19014KT 27/21 A299 RMK A01 T02730208  RH  068%=      5-min Rain = 0
KHA3 191308Z 19018G23KT 27/21 A299 RMK A01 T02740208  RH  067%=      5-min Rain = 0
KHA3 191309Z 19017KT 27/21 A299 RMK A01 T02740207  RH  067%=      5-min Rain = 0
KHA3 191310Z 19016KT 27/21 A299 RMK A01 T02740208  RH  067%=      5-min Rain = 0
KHA3 191311Z 19017KT 27/21 A299 RMK A01 T02740208  RH  067%=      5-min Rain = 0
KHA3 191312Z 19018KT 27/21 A299 RMK A01 T02740208  RH  067%=      5-min Rain = 0
KHA3 191313Z 20017KT 27/21 A299 RMK A01 T02740208  RH  067%=      5-min Rain = 0
KHA3 191314Z 19015G20KT 27/21 A299 RMK A01 T02740208  RH  067%=      5-min Rain = 0
KHA3 191315Z 19016KT 28/21 A299 RMK A01 T02750208  RH  067%=      5-min Rain = 0
KHA3 191316Z 19019KT 28/21 A299 RMK A01 T02750208  RH  067%=      5-min Rain = 0
KHA3 191317Z 20017KT 28/21 A299 RMK A01 T02750208  RH  067%=      5-min Rain = 0
KHA3 191318Z 20018KT 28/21 A299 RMK A01 T02750208  RH  067%=      5-min Rain = 0
KHA3 191319Z 19019KT 28/21 A299 RMK A01 T02750207  RH  066%=      5-min Rain = 0
KHA3 191320Z 20018KT 28/21 A299 RMK A01 T02760207  RH  066%=      5-min Rain = 0
KHA3 191321Z 20017KT 28/21 A299 RMK A01 T02760208  RH  066%=      5-min Rain = 0
KHA3 191322Z 19018KT 28/21 A299 RMK A01 T02760208  RH  066%=      5-min Rain = 0
KHA3 191323Z 18019KT 28/21 A299 RMK A01 T02770208  RH  066%=      5-min Rain = 0
KHA3 191324Z 19017KT 28/21 A299 RMK A01 T02770208  RH  066%=      5-min Rain = 0
KHA3 191325Z 19017KT 28/21 A299 RMK A01 T02770208  RH  066%=      5-min Rain = 0
KHA3 191326Z 19018KT 28/21 A299 RMK A01 T02790208  RH  065%=      5-min Rain = 0
KHA3 191327Z 19015KT 28/21 A299 RMK A01 T02780208  RH  066%=      5-min Rain = 0
KHA3 191328Z 19017KT 28/21 A299 RMK A01 T02790208  RH  065%=      5-min Rain = 0
KHA3 191329Z 19017KT 28/21 A299 RMK A01 T02800208  RH  065%=      5-min Rain = 0
KHA3 191330Z 19017KT 28/21 A299 RMK A01 T02790208  RH  065%=      5-min Rain = 0
KHA3 191331Z 19016KT 28/21 A299 RMK A01 T02800208  RH  065%=      5-min Rain = 0
KHA3 191332Z 19020G26KT 28/21 A299 RMK A01 T02800208  RH  065%=      5-min Rain = 0
KHA3 191333Z 19020KT 28/21 A299 RMK A01 T02800207  RH  064%=      5-min Rain = 0
KHA3 191334Z 20018KT 28/21 A299 RMK A01 T02800207  RH  065%=      5-min Rain = 0
KHA3 191335Z 19021KT 28/21 A299 RMK A01 T02800207  RH  065%=      5-min Rain = 0
KHA3 191336Z 19022KT 28/21 A299 RMK A01 T02800206  RH  064%=      5-min Rain = 0
KHA3 191337Z 19021G26KT 28/21 A299 RMK A01 T02800207  RH  065%=      5-min Rain = 0
KHA3 191338Z 20022KT 28/21 A299 RMK A01 T02800206  RH  064%=      5-min Rain = 0
KHA3 191339Z 19019G24KT 28/21 A299 RMK A01 T02800207  RH  064%=      5-min Rain = 0
KHA3 191340Z 19019KT 28/21 A299 RMK A01 T02800207  RH  064%=      5-min Rain = 0
KHA3 191341Z 19019KT 28/21 A299 RMK A01 T02810207  RH  064%=      5-min Rain = 0
KHA3 191342Z 19021KT 28/21 A299 RMK A01 T02810206  RH  064%=      5-min Rain = 0
KHA3 191343Z 19019KT 28/21 A299 RMK A01 T02820207  RH  064%=      5-min Rain = 0
KHA3 191344Z 20018KT 28/21 A299 RMK A01 T02820207  RH  063%=      5-min Rain = 0
KHA3 191345Z 19020KT 28/21 A299 RMK A01 T02830207  RH  064%=      5-min Rain = 0
KHA3 191346Z 20022G27KT 28/21 A299 RMK A01 T02830207  RH  063%=      5-min Rain = 0
KHA3 191347Z 19022KT 28/21 A299 RMK A01 T02830206  RH  063%=      5-min Rain = 0
KHA3 191348Z 20019KT 28/21 A299 RMK A01 T02830206  RH  063%=      5-min Rain = 0
KHA3 191349Z 19018KT 28/21 A299 RMK A01 T02830206  RH  063%=      5-min Rain = 0
KHA3 191350Z 19020G25KT 28/21 A299 RMK A01 T02840206  RH  063%=      5-min Rain = 0
KHA3 191351Z 20021KT 28/21 A299 RMK A01 T02840206  RH  063%=      5-min Rain = 0
KHA3 191352Z 20020KT 28/21 A299 RMK A01 T02840206  RH  063%=      5-min Rain = 0
KHA3 191353Z 20018KT 28/21 A299 RMK A01 T02840206  RH  063%=      5-min Rain = 0
KHA3 191354Z 19022KT 28/21 A299 RMK A01 T02840206  RH  063%=      5-min Rain = 0
KHA3 191355Z 20023KT 28/20 A299 RMK A01 T02840204  RH  062%=      5-min Rain = 0
KHA3 191356Z 19022KT 28/21 A299 RMK A01 T02840205  RH  062%=      5-min Rain = 0
KHA3 191357Z 20024KT 28/21 A299 RMK A01 T02840205  RH  062%=      5-min Rain = 0
KHA3 191358Z 19024KT 28/21 A299 RMK A01 T02840205  RH  062%=      5-min Rain = 0
KHA3 191359Z 20022KT 28/20 A299 RMK A01 T02840204  RH  062%=      5-min Rain = 0
KHA3 191400Z 20020KT 28/21 A299 RMK A01 T02840205  RH  062%=      5-min Rain = 0
KHA3 191401Z 20018KT 29/21 A299 RMK A01 T02850206  RH  062%=      5-min Rain = 0
KHA3 191402Z 19019KT 29/21 A299 RMK A01 T02860206  RH  062%=      5-min Rain = 0
KHA3 191403Z 19018G24KT 29/21 A299 RMK A01 T02870206  RH  062%=      5-min Rain = 0
KHA3 191404Z 19016KT 29/21 A299 RMK A01 T02880207  RH  062%=      5-min Rain = 0
KHA3 191405Z 19018G24KT 29/21 A299 RMK A01 T02890207  RH  061%=      5-min Rain = 0
KHA3 191406Z 19017G23KT 29/21 A299 RMK A01 T02890207  RH  061%=      5-min Rain = 0
KHA3 191407Z 19020G25KT 29/21 A299 RMK A01 T02900206  RH  061%=      5-min Rain = 0
KHA3 191408Z 20021KT 29/21 A299 RMK A01 T02900206  RH  061%=      5-min Rain = 0
KHA3 191409Z 21016G21KT 29/21 A299 RMK A01 T02890206  RH  061%=      5-min Rain = 0
KHA3 191410Z 21018G24KT 29/21 A299 RMK A01 T02900206  RH  061%=      5-min Rain = 0
KHA3 191411Z 19018KT 29/21 A2991 RMK A01 T02910206  RH  060%=      5-min Rain = 0
KHA3 191412Z 19020G25KT 29/21 A2991 RMK A01 T02910206  RH  060%=      5-min Rain = 0
KHA3 191413Z 19020KT 29/21 A2991 RMK A01 T02910205  RH  060%=      5-min Rain = 0
KHA3 191414Z 19019KT 29/21 A2991 RMK A01 T02900205  RH  060%=      5-min Rain = 0
KHA3 191415Z 20019KT 29/21 A2991 RMK A01 T02900205  RH  060%=      5-min Rain = 0
KHA3 191416Z 21021KT 29/20 A299 RMK A01 T02900204  RH  060%=      5-min Rain = 0
KHA3 191417Z 20022KT 29/20 A299 RMK A01 T02910204  RH  060%=      5-min Rain = 0
KHA3 191418Z 20020KT 29/21 A2991 RMK A01 T02910205  RH  060%=      5-min Rain = 0
KHA3 191419Z 20021KT 29/20 A2991 RMK A01 T02920204  RH  059%=      5-min Rain = 0
KHA3 191420Z 20018KT 29/20 A2991 RMK A01 T02920204  RH  059%=      5-min Rain = 0
KHA3 191421Z 21016G21KT 29/21 A2991 RMK A01 T02930205  RH  059%=      5-min Rain = 0
KHA3 191422Z 20019KT 30/21 A2991 RMK A01 T02950205  RH  058%=      5-min Rain = 0
KHA3 191423Z 20016KT 30/21 A2991 RMK A01 T02960205  RH  058%=      5-min Rain = 0
KHA3 191424Z 20020KT 30/20 A299 RMK A01 T02950204  RH  058%=      5-min Rain = 0
KHA3 191425Z 20020KT 30/20 A2991 RMK A01 T02950204  RH  058%=      5-min Rain = 0
KHA3 191426Z 19020KT 30/20 A299 RMK A01 T02950204  RH  058%=      5-min Rain = 0
KHA3 191427Z 20019G24KT 30/20 A299 RMK A01 T02950204  RH  058%=      5-min Rain = 0
KHA3 191428Z 20024KT 30/20 A299 RMK A01 T02950203  RH  058%=      5-min Rain = 0
KHA3 191429Z 21023KT 29/20 A299 RMK A01 T02940202  RH  057%=      5-min Rain = 0
KHA3 191430Z 20016KT 30/20 A2991 RMK A01 T02950203  RH  058%=      5-min Rain = 0
KHA3 191431Z 20018KT 30/20 A2991 RMK A01 T02980204  RH  057%=      5-min Rain = 0
KHA3 191432Z 20019KT 30/20 A299 RMK A01 T02990203  RH  056%=      5-min Rain = 0
KHA3 191433Z 21021KT 30/20 A299 RMK A01 T02980202  RH  056%=      5-min Rain = 0
KHA3 191434Z 21019G25KT 30/20 A2991 RMK A01 T02980202  RH  056%=      5-min Rain = 0
KHA3 191435Z 20022KT 30/20 A299 RMK A01 T02980201  RH  056%=      5-min Rain = 0
KHA3 191436Z 21020KT 30/20 A2991 RMK A01 T02990202  RH  056%=      5-min Rain = 0
KHA3 191437Z 20019G24KT 30/20 A2991 RMK A01 T02990202  RH  056%=      5-min Rain = 0
KHA3 191438Z 20019G24KT 30/20 A2991 RMK A01 T03000203  RH  056%=      5-min Rain = 0
KHA3 191439Z 19019KT 30/20 A299 RMK A01 T03000202  RH  056%=      5-min Rain = 0
KHA3 191440Z 19020KT 30/20 A299 RMK A01 T03000203  RH  056%=      5-min Rain = 0
KHA3 191441Z 20017G22KT 30/20 A2991 RMK A01 T03000203  RH  056%=      5-min Rain = 0
KHA3 191442Z 21020KT 30/20 A299 RMK A01 T03020202  RH  055%=      5-min Rain = 0
KHA3 191443Z 21018G24KT 30/20 A299 RMK A01 T03030202  RH  055%=      5-min Rain = 0
KHA3 191444Z 21018KT 30/20 A299 RMK A01 T03030202  RH  055%=      5-min Rain = 0
KHA3 191445Z 21017G22KT 30/20 A299 RMK A01 T03040202  RH  055%=      5-min Rain = 0
KHA3 191446Z 21017KT 30/20 A299 RMK A01 T03040202  RH  054%=      5-min Rain = 0
KHA3 191447Z 20022KT 30/20 A299 RMK A01 T03040202  RH  054%=      5-min Rain = 0
KHA3 191448Z 20022KT 30/20 A299 RMK A01 T03040202  RH  055%=      5-min Rain = 0
KHA3 191449Z 20020KT 30/20 A299 RMK A01 T03030201  RH  054%=      5-min Rain = 0
KHA3 191450Z 20022KT 30/20 A299 RMK A01 T03020201  RH  055%=      5-min Rain = 0
KHA3 191451Z 20020G25KT 30/20 A299 RMK A01 T03030201  RH  054%=      5-min Rain = 0
KHA3 191452Z 20020G27KT 30/20 A299 RMK A01 T03030201  RH  054%=      5-min Rain = 0
KHA3 191453Z 20024KT 30/20 A299 RMK A01 T03040200  RH  054%=      5-min Rain = 0
KHA3 191454Z 19021KT 30/20 A299 RMK A01 T03040199  RH  054%=      5-min Rain = 0
KHA3 191455Z 19022KT 30/20 A299 RMK A01 T03040200  RH  054%=      5-min Rain = 0
KHA3 191456Z 20023G29KT 30/20 A299 RMK A01 T03040199  RH  053%=      5-min Rain = 0
KHA3 191457Z 20025KT 31/20 A299 RMK A01 T03050198  RH  053%=      5-min Rain = 0
KHA3 191458Z 20024KT 31/20 A299 RMK A01 T03050198  RH  053%=      5-min Rain = 0
KHA3 191459Z 20022KT 31/20 A299 RMK A01 T03050199  RH  053%=      5-min Rain = 0
KHA3 191500Z 21021KT 31/20 A299 RMK A01 T03050200  RH  053%=      5-min Rain = 0
KHA3 191501Z 21019G25KT 31/20 A299 RMK A01 T03060198  RH  053%=      5-min Rain = 0
KHA3 191502Z 20022KT 31/20 A299 RMK A01 T03060199  RH  053%=      5-min Rain = 0
KHA3 191503Z 20019KT 31/20 A299 RMK A01 T03080199  RH  052%=      5-min Rain = 0
KHA3 191504Z 21021G26KT 31/20 A299 RMK A01 T03090200  RH  052%=      5-min Rain = 0
KHA3 191505Z 21020KT 31/20 A299 RMK A01 T03100199  RH  052%=      5-min Rain = 0
KHA3 191506Z 21022KT 31/20 A299 RMK A01 T03100198  RH  051%=      5-min Rain = 0
KHA3 191507Z 21021KT 31/20 A299 RMK A01 T03100199  RH  052%=      5-min Rain = 0
KHA3 191508Z 21018KT 31/20 A299 RMK A01 T03090199  RH  052%=      5-min Rain = 0
KHA3 191509Z 21017KT 31/20 A299 RMK A01 T03110200  RH  052%=      5-min Rain = 0
KHA3 191510Z 20013KT 31/20 A299 RMK A01 T03130202  RH  052%=      5-min Rain = 0
KHA3 191511Z 21017G25KT 32/20 A299 RMK A01 T03160203  RH  051%=      5-min Rain = 0
KHA3 191512Z 21021KT 32/20 A299 RMK A01 T03160200  RH  050%=      5-min Rain = 0
KHA3 191513Z 20021KT 32/20 A299 RMK A01 T03150200  RH  051%=      5-min Rain = 0
KHA3 191514Z 20019KT 31/20 A299 RMK A01 T03140200  RH  051%=      5-min Rain = 0
KHA3 191515Z 20021KT 31/20 A299 RMK A01 T03140199  RH  051%=      5-min Rain = 0
KHA3 191516Z 21021G26KT 31/20 A299 RMK A01 T03130198  RH  050%=      5-min Rain = 0
KHA3 191517Z 21022KT 31/20 A299 RMK A01 T03130198  RH  051%=      5-min Rain = 0
KHA3 191518Z 21021KT 31/20 A299 RMK A01 T03120198  RH  051%=      5-min Rain = 0
KHA3 191519Z 20021KT 31/20 A299 RMK A01 T03120198  RH  051%=      5-min Rain = 0
KHA3 191520Z 19023KT 31/20 A299 RMK A01 T03130198  RH  051%=      5-min Rain = 0
KHA3 191521Z 19022KT 31/20 A299 RMK A01 T03120198  RH  051%=      5-min Rain = 0
KHA3 191522Z 20019KT 31/20 A299 RMK A01 T03120199  RH  051%=      5-min Rain = 0
KHA3 191523Z 20020KT 31/20 A299 RMK A01 T03140199  RH  050%=      5-min Rain = 0
KHA3 191524Z 20021KT 32/20 A299 RMK A01 T03150199  RH  050%=      5-min Rain = 0
KHA3 191525Z 20022KT 32/20 A299 RMK A01 T03160199  RH  050%=      5-min Rain = 0
KHA3 191526Z 20021KT 32/20 A299 RMK A01 T03160199  RH  050%=      5-min Rain = 0
KHA3 191527Z 19023KT 32/20 A299 RMK A01 T03160198  RH  050%=      5-min Rain = 0
KHA3 191528Z 20020KT 32/20 A299 RMK A01 T03150200  RH  050%=      5-min Rain = 0
KHA3 191529Z 20021KT 32/20 A299 RMK A01 T03170200  RH  050%=      5-min Rain = 0
KHA3 191530Z 19019KT 32/20 A299 RMK A01 T03180200  RH  050%=      5-min Rain = 0
KHA3 191531Z 20019KT 32/20 A299 RMK A01 T03170200  RH  050%=      5-min Rain = 0
KHA3 191532Z 20019KT 32/20 A299 RMK A01 T03170201  RH  050%=      5-min Rain = 0
KHA3 191533Z 19017KT 32/20 A299 RMK A01 T03190201  RH  050%=      5-min Rain = 0
KHA3 191534Z 19021KT 32/20 A299 RMK A01 T03200202  RH  049%=      5-min Rain = 0
KHA3 191535Z 19020KT 32/20 A299 RMK A01 T03210201  RH  049%=      5-min Rain = 0
KHA3 191536Z 19021KT 32/20 A299 RMK A01 T03200201  RH  049%=      5-min Rain = 0
KHA3 191537Z 19020KT 32/20 A299 RMK A01 T03200200  RH  049%=      5-min Rain = 0
KHA3 191538Z 18019KT 32/20 A299 RMK A01 T03190200  RH  049%=      5-min Rain = 0
KHA3 191539Z 18019G25KT 32/20 A299 RMK A01 T03210202  RH  049%=      5-min Rain = 0
KHA3 191540Z 18016KT 32/20 A299 RMK A01 T03230202  RH  049%=      5-min Rain = 0
KHA3 191541Z 19018KT 32/20 A299 RMK A01 T03230202  RH  049%=      5-min Rain = 0
KHA3 191542Z 18019KT 33/20 A299 RMK A01 T03250201  RH  048%=      5-min Rain = 0
KHA3 191543Z 19021KT 32/20 A299 RMK A01 T03240201  RH  048%=      5-min Rain = 0
KHA3 191544Z 19022KT 32/20 A299 RMK A01 T03230200  RH  048%=      5-min Rain = 0
KHA3 191545Z 19021KT 32/20 A299 RMK A01 T03210200  RH  049%=      5-min Rain = 0
KHA3 191546Z 18018KT 32/20 A299 RMK A01 T03200199  RH  049%=      5-min Rain = 0
KHA3 191547Z 19018G23KT 32/20 A299 RMK A01 T03190200  RH  049%=      5-min Rain = 0
KHA3 191548Z 19021KT 32/20 A299 RMK A01 T03200200  RH  049%=      5-min Rain = 0
KHA3 191549Z 19019KT 32/20 A299 RMK A01 T03220200  RH  049%=      5-min Rain = 0
KHA3 191550Z 19020G25KT 32/20 A299 RMK A01 T03230201  RH  049%=      5-min Rain = 0
KHA3 191551Z 19020KT 32/20 A299 RMK A01 T03230200  RH  048%=      5-min Rain = 0
KHA3 191552Z 19018KT 32/20 A299 RMK A01 T03220199  RH  048%=      5-min Rain = 0
KHA3 191553Z 19021KT 32/20 A299 RMK A01 T03220200  RH  048%=      5-min Rain = 0
KHA3 191554Z 20015KT 32/20 A299 RMK A01 T03230200  RH  048%=      5-min Rain = 0
KHA3 191555Z 22015KT 33/20 A299 RMK A01 T03280198  RH  047%=      5-min Rain = 0
KHA3 191556Z 20015KT 33/20 A299 RMK A01 T03290199  RH  046%=      5-min Rain = 0
KHA3 191557Z 19015KT 33/21 A299 RMK A01 T03310205  RH  048%=      5-min Rain = 0
KHA3 191558Z 19016KT 33/20 A299 RMK A01 T03290203  RH  048%=      5-min Rain = 0
KHA3 191559Z 18017KT 33/20 A299 RMK A01 T03270203  RH  048%=      5-min Rain = 0
KHA3 191600Z 18013KT 33/20 A299 RMK A01 T03250203  RH  049%=      5-min Rain = 0
KHA3 191601Z 18015KT 33/20 A299 RMK A01 T03260204  RH  049%=      5-min Rain = 0
KHA3 191602Z 19015KT 33/21 A2989 RMK A01 T03280205  RH  048%=      5-min Rain = 0
KHA3 191603Z 19016KT 33/20 A2989 RMK A01 T03290203  RH  047%=      5-min Rain = 0
KHA3 191604Z 18017KT 33/20 A299 RMK A01 T03310203  RH  047%=      5-min Rain = 0
KHA3 191605Z 18015KT 33/20 A2989 RMK A01 T03310202  RH  047%=      5-min Rain = 0
KHA3 191606Z 19016G22KT 33/20 A2989 RMK A01 T03300202  RH  047%=      5-min Rain = 0
KHA3 191607Z 19022KT 33/20 A2989 RMK A01 T03310200  RH  046%=      5-min Rain = 0
KHA3 191608Z 19019KT 33/20 A299 RMK A01 T03290199  RH  046%=      5-min Rain = 0
KHA3 191609Z 19015G20KT 33/20 A299 RMK A01 T03280200  RH  047%=      5-min Rain = 0
KHA3 191610Z 20014KT 33/20 A2989 RMK A01 T03290201  RH  047%=      5-min Rain = 0
KHA3 191611Z 19018KT 33/20 A2989 RMK A01 T03310203  RH  047%=      5-min Rain = 0
KHA3 191612Z 18019KT 33/20 A2989 RMK A01 T03310202  RH  047%=      5-min Rain = 0
KHA3 191613Z 18019KT 33/20 A2989 RMK A01 T03300201  RH  047%=      5-min Rain = 0
KHA3 191614Z 19014KT 33/20 A299 RMK A01 T03300203  RH  047%=      5-min Rain = 0
KHA3 191615Z 19013G18KT 33/20 A2989 RMK A01 T03310203  RH  047%=      5-min Rain = 0
KHA3 191616Z 18017KT 33/20 A2989 RMK A01 T03310203  RH  047%=      5-min Rain = 0
KHA3 191617Z 18017KT 33/20 A2989 RMK A01 T03320203  RH  047%=      5-min Rain = 0
KHA3 191618Z 17017KT 33/20 A299 RMK A01 T03320202  RH  047%=      5-min Rain = 0
KHA3 191619Z 18016KT 33/20 A299 RMK A01 T03320201  RH  046%=      5-min Rain = 0
KHA3 191620Z 19016KT 33/20 A299 RMK A01 T03320202  RH  046%=      5-min Rain = 0
KHA3 191621Z 19017KT 33/20 A299 RMK A01 T03330202  RH  046%=      5-min Rain = 0
KHA3 191622Z 20020KT 33/20 A2989 RMK A01 T03340201  RH  046%=      5-min Rain = 0
KHA3 191623Z 19015KT 33/20 A299 RMK A01 T03330201  RH  046%=      5-min Rain = 0
KHA3 191624Z 18015G21KT 33/20 A299 RMK A01 T03330203  RH  047%=      5-min Rain = 0
KHA3 191625Z 18017KT 33/20 A2989 RMK A01 T03330201  RH  046%=      5-min Rain = 0
KHA3 191626Z 18017KT 33/20 A2989 RMK A01 T03320203  RH  047%=      5-min Rain = 0
KHA3 191627Z 18016KT 33/20 A2989 RMK A01 T03340201  RH  046%=      5-min Rain = 0
KHA3 191628Z 18018KT 34/20 A2989 RMK A01 T03350201  RH  045%=      5-min Rain = 0
KHA3 191629Z 19018KT 33/20 A2989 RMK A01 T03340201  RH  046%=      5-min Rain = 0
KHA3 191630Z 19020KT 33/20 A2989 RMK A01 T03340201  RH  046%=      5-min Rain = 0
KHA3 191631Z 18017KT 33/20 A2989 RMK A01 T03340201  RH  046%=      5-min Rain = 0
KHA3 191632Z 18013KT 33/20 A2989 RMK A01 T03340201  RH  046%=      5-min Rain = 0
KHA3 191633Z 18015KT 34/20 A2989 RMK A01 T03370202  RH  045%=      5-min Rain = 0
KHA3 191634Z 19013KT 34/20 A2989 RMK A01 T03390203  RH  045%=      5-min Rain = 0
KHA3 191635Z 19015KT 34/20 A2989 RMK A01 T03400202  RH  045%=      5-min Rain = 0
KHA3 191636Z 18015KT 34/21 A2989 RMK A01 T03400205  RH  045%=      5-min Rain = 0
KHA3 191637Z 18016KT 34/20 A2989 RMK A01 T03410203  RH  044%=      5-min Rain = 0
KHA3 191638Z 18018KT 34/20 A2989 RMK A01 T03400202  RH  045%=      5-min Rain = 0
KHA3 191639Z 18016KT 34/20 A2989 RMK A01 T03380202  RH  045%=      5-min Rain = 0
KHA3 191640Z 16018KT 34/20 A2989 RMK A01 T03380201  RH  044%=      5-min Rain = 0
KHA3 191641Z 17017KT 34/20 A2989 RMK A01 T03370201  RH  045%=      5-min Rain = 0
KHA3 191642Z 18017KT 34/20 A2989 RMK A01 T03380202  RH  045%=      5-min Rain = 0
KHA3 191643Z 18019G25KT 34/20 A2989 RMK A01 T03390199  RH  044%=      5-min Rain = 0
KHA3 191644Z 18018KT 34/20 A2989 RMK A01 T03390200  RH  044%=      5-min Rain = 0
KHA3 191645Z 21016KT 34/20 A2989 RMK A01 T03390199  RH  044%=      5-min Rain = 0
KHA3 191646Z 19013KT 34/20 A2989 RMK A01 T03380199  RH  044%=      5-min Rain = 0
KHA3 191647Z 18011KT 34/20 A2989 RMK A01 T03390202  RH  045%=      5-min Rain = 0
KHA3 191648Z 19014G19KT 34/20 A2989 RMK A01 T03410203  RH  044%=      5-min Rain = 0
KHA3 191649Z 16012G18KT 34/21 A2989 RMK A01 T03410206  RH  045%=      5-min Rain = 0
KHA3 191650Z 17019G24KT 34/20 A2989 RMK A01 T03440203  RH  044%=      5-min Rain = 0
KHA3 191651Z 17017KT 34/20 A2989 RMK A01 T03420202  RH  044%=      5-min Rain = 0
KHA3 191652Z 17016KT 34/20 A2989 RMK A01 T03400202  RH  044%=      5-min Rain = 0
KHA3 191653Z 16012KT 34/20 A2989 RMK A01 T03400202  RH  045%=      5-min Rain = 0
KHA3 191654Z 20014G19KT 34/21 A2989 RMK A01 T03420206  RH  045%=      5-min Rain = 0
KHA3 191655Z 18014KT 35/20 A2989 RMK A01 T03470204  RH  043%=      5-min Rain = 0
KHA3 191656Z 20013KT 35/20 A2989 RMK A01 T03480203  RH  043%=      5-min Rain = 0
KHA3 191657Z 17013G19KT 35/21 A2989 RMK A01 T03480205  RH  043%=      5-min Rain = 0
KHA3 191658Z 18014KT 35/20 A2989 RMK A01 T03490204  RH  043%=      5-min Rain = 0
KHA3 191659Z 18013KT 35/20 A2989 RMK A01 T03480204  RH  043%=      5-min Rain = 0
KHA3 191700Z 19014KT 35/21 A2989 RMK A01 T03480205  RH  043%=      5-min Rain = 0
KHA3 191701Z 19014KT 35/21 A2989 RMK A01 T03490205  RH  043%=      5-min Rain = 0
KHA3 191702Z 18014G21KT 35/21 A2989 RMK A01 T03500205  RH  043%=      5-min Rain = 0
KHA3 191703Z 19016KT 35/20 A2989 RMK A01 T03500201  RH  042%=      5-min Rain = 0
KHA3 191704Z 18014KT 35/20 A2989 RMK A01 T03460204  RH  043%=      5-min Rain = 0
KHA3 191705Z 18013KT 35/20 A2989 RMK A01 T03480204  RH  043%=      5-min Rain = 0
KHA3 191706Z 20016KT 35/20 A2989 RMK A01 T03480203  RH  043%=      5-min Rain = 0
KHA3 191707Z 20015KT 35/20 A2989 RMK A01 T03460202  RH  043%=      5-min Rain = 0
KHA3 191708Z 19011G17KT 35/20 A2989 RMK A01 T03470204  RH  044%=      5-min Rain = 0
KHA3 191709Z 18012KT 35/21 A2989 RMK A01 T03500205  RH  043%=      5-min Rain = 0
KHA3 191710Z 19014G19KT 35/20 A2989 RMK A01 T03520201  RH  041%=      5-min Rain = 0
KHA3 191711Z 19015G22KT 35/20 A2989 RMK A01 T03490203  RH  042%=      5-min Rain = 0
KHA3 191712Z 18018KT 35/20 A2989 RMK A01 T03500200  RH  041%=      5-min Rain = 0
KHA3 191713Z 19020KT 35/20 A2989 RMK A01 T03470199  RH  042%=      5-min Rain = 0
KHA3 191714Z 19015KT 35/20 A2989 RMK A01 T03450200  RH  043%=      5-min Rain = 0
KHA3 191715Z 18015G22KT 35/20 A2989 RMK A01 T03450200  RH  043%=      5-min Rain = 0
KHA3 191716Z 17017KT 35/20 A2989 RMK A01 T03470201  RH  042%=      5-min Rain = 0
KHA3 191717Z 17016KT 35/20 A2989 RMK A01 T03500200  RH  042%=      5-min Rain = 0
KHA3 191718Z 18018KT 35/20 A2989 RMK A01 T03510199  RH  041%=      5-min Rain = 0
KHA3 191719Z 19017KT 35/20 A2989 RMK A01 T03510199  RH  041%=      5-min Rain = 0
KHA3 191720Z 19016KT 35/20 A2989 RMK A01 T03490200  RH  042%=      5-min Rain = 0
KHA3 191721Z 19014KT 35/20 A2989 RMK A01 T03480200  RH  042%=      5-min Rain = 0
KHA3 191722Z 19014KT 35/20 A2989 RMK A01 T03490200  RH  042%=      5-min Rain = 0
KHA3 191723Z 18013G20KT 35/20 A2989 RMK A01 T03470203  RH  043%=      5-min Rain = 0
KHA3 191724Z 19018G23KT 35/20 A2989 RMK A01 T03500199  RH  041%=      5-min Rain = 0
KHA3 191725Z 18016KT 35/20 A2989 RMK A01 T03510198  RH  041%=      5-min Rain = 0
KHA3 191726Z 18016KT 35/20 A2989 RMK A01 T03500199  RH  041%=      5-min Rain = 0
KHA3 191727Z 18015KT 35/20 A2989 RMK A01 T03500199  RH  042%=      5-min Rain = 0
KHA3 191728Z 19014G19KT 35/20 A2989 RMK A01 T03500201  RH  042%=      5-min Rain = 0
KHA3 191729Z 19016KT 35/20 A2989 RMK A01 T03520201  RH  041%=      5-min Rain = 0
KHA3 191730Z 20017KT 35/20 A2989 RMK A01 T03540198  RH  040%=      5-min Rain = 0
KHA3 191731Z 21017KT 35/20 A2989 RMK A01 T03540198  RH  040%=      5-min Rain = 0
KHA3 191732Z 19019KT 36/20 A2989 RMK A01 T03550199  RH  040%=      5-min Rain = 0
KHA3 191733Z 19019KT 36/20 A2989 RMK A01 T03560197  RH  040%=      5-min Rain = 0
KHA3 191734Z 19017KT 35/20 A2989 RMK A01 T03530198  RH  040%=      5-min Rain = 0
KHA3 191735Z 18017KT 35/20 A2989 RMK A01 T03530197  RH  040%=      5-min Rain = 0
KHA3 191736Z 19016KT 35/20 A2989 RMK A01 T03520196  RH  040%=      5-min Rain = 0
KHA3 191737Z 19014KT 35/20 A2989 RMK A01 T03500197  RH  041%=      5-min Rain = 0
KHA3 191738Z 19015KT 35/20 A2989 RMK A01 T03510198  RH  041%=      5-min Rain = 0
KHA3 191739Z 18014KT 35/20 A2989 RMK A01 T03520199  RH  041%=      5-min Rain = 0
KHA3 191740Z 17013KT 35/20 A2989 RMK A01 T03520200  RH  041%=      5-min Rain = 0
KHA3 191741Z 18018KT 36/20 A2989 RMK A01 T03550201  RH  040%=      5-min Rain = 0
KHA3 191742Z 17016KT 36/20 A2989 RMK A01 T03550200  RH  040%=      5-min Rain = 0
KHA3 191743Z 17016KT 35/20 A2989 RMK A01 T03530200  RH  041%=      5-min Rain = 0
KHA3 191744Z 17016KT 35/20 A2989 RMK A01 T03530202  RH  041%=      5-min Rain = 0
KHA3 191745Z 17017KT 35/20 A2989 RMK A01 T03540202  RH  041%=      5-min Rain = 0
KHA3 191746Z 18016KT 36/20 A2989 RMK A01 T03550199  RH  040%=      5-min Rain = 0
KHA3 191747Z 20015KT 35/20 A2989 RMK A01 T03540200  RH  041%=      5-min Rain = 0
KHA3 191748Z 19016KT 36/20 A2989 RMK A01 T03590202  RH  040%=      5-min Rain = 0
KHA3 191749Z 19016KT 36/20 A2989 RMK A01 T03610199  RH  039%=      5-min Rain = 0
KHA3 191750Z 19016KT 36/20 A2989 RMK A01 T03580198  RH  039%=      5-min Rain = 0
KHA3 191751Z 18013KT 36/20 A2989 RMK A01 T03570198  RH  039%=      5-min Rain = 0
KHA3 191752Z 18014KT 36/20 A2989 RMK A01 T03580201  RH  040%=      5-min Rain = 0
KHA3 191753Z 16014KT 36/20 A2989 RMK A01 T03590198  RH  039%=      5-min Rain = 0
KHA3 191754Z 18012KT 36/20 A2989 RMK A01 T03560199  RH  040%=      5-min Rain = 0
KHA3 191755Z 18014KT 36/20 A2989 RMK A01 T03560201  RH  040%=      5-min Rain = 0
KHA3 191756Z 17016KT 36/20 A2989 RMK A01 T03610203  RH  040%=      5-min Rain = 0
KHA3 191757Z 16018KT 36/20 A2989 RMK A01 T03630201  RH  039%=      5-min Rain = 0
KHA3 191758Z 16015KT 36/20 A2989 RMK A01 T03600199  RH  039%=      5-min Rain = 0
KHA3 191759Z 16013KT 36/20 A2989 RMK A01 T03580199  RH  040%=      5-min Rain = 0
KHA3 191800Z 19014KT 36/20 A2989 RMK A01 T03600204  RH  040%=      5-min Rain = 0
KHA3 191801Z 19016G21KT 36/20 A2988 RMK A01 T03640198  RH  038%=      5-min Rain = 0
KHA3 191802Z 18015KT 36/20 A2989 RMK A01 T03620197  RH  038%=      5-min Rain = 0
KHA3 191803Z 17015KT 36/20 A2989 RMK A01 T03600198  RH  039%=      5-min Rain = 0
KHA3 191804Z 18014KT 36/20 A2988 RMK A01 T03600198  RH  039%=      5-min Rain = 0
KHA3 191805Z 18015KT 36/20 A2988 RMK A01 T03620199  RH  039%=      5-min Rain = 0
KHA3 191806Z 18018KT 36/20 A2988 RMK A01 T03630196  RH  038%=      5-min Rain = 0
KHA3 191807Z 19017G23KT 36/20 A2988 RMK A01 T03600197  RH  039%=      5-min Rain = 0
KHA3 191808Z 18013KT 36/20 A2988 RMK A01 T03590198  RH  039%=      5-min Rain = 0
KHA3 191809Z 17015G20KT 36/20 A2988 RMK A01 T03630200  RH  039%=      5-min Rain = 0
KHA3 191810Z 20016KT 37/20 A2988 RMK A01 T03650199  RH  038%=      5-min Rain = 0
KHA3 191811Z 20015KT 37/20 A2988 RMK A01 T03650198  RH  038%=      5-min Rain = 0
KHA3 191812Z 20019KT 37/20 A2988 RMK A01 T03650197  RH  038%=      5-min Rain = 0
KHA3 191813Z 19017KT 36/20 A2988 RMK A01 T03620195  RH  038%=      5-min Rain = 0
KHA3 191814Z 19019KT 36/20 A2988 RMK A01 T03620197  RH  038%=      5-min Rain = 0
KHA3 191815Z 18015G20KT 36/20 A2988 RMK A01 T03620195  RH  038%=      5-min Rain = 0
KHA3 191816Z 17012KT 36/20 A2988 RMK A01 T03610198  RH  039%=      5-min Rain = 0
KHA3 191817Z 19017KT 37/20 A2988 RMK A01 T03660198  RH  038%=      5-min Rain = 0
KHA3 191818Z 18017KT 37/19 A2988 RMK A01 T03650194  RH  037%=      5-min Rain = 0
KHA3 191819Z 18017KT 36/19 A2988 RMK A01 T03620194  RH  037%=      5-min Rain = 0
KHA3 191820Z 19018KT 36/19 A2988 RMK A01 T03610194  RH  038%=      5-min Rain = 0
KHA3 191821Z 18014KT 36/20 A2988 RMK A01 T03610195  RH  038%=      5-min Rain = 0
KHA3 191822Z 17012KT 36/20 A2988 RMK A01 T03620196  RH  038%=      5-min Rain = 0
KHA3 191823Z 17012KT 36/20 A2988 RMK A01 T03630197  RH  038%=      5-min Rain = 0
KHA3 191824Z 19014KT 36/20 A2988 RMK A01 T03640200  RH  038%=      5-min Rain = 0
KHA3 191825Z 19016KT 37/20 A2988 RMK A01 T03660198  RH  037%=      5-min Rain = 0
KHA3 191826Z 18017KT 37/19 A2988 RMK A01 T03680194  RH  036%=      5-min Rain = 0
KHA3 191827Z 19017KT 37/19 A2988 RMK A01 T03670194  RH  036%=      5-min Rain = 0
KHA3 191828Z 20015KT 37/19 A2988 RMK A01 T03660194  RH  037%=      5-min Rain = 0
KHA3 191829Z 19014G19KT 37/20 A2988 RMK A01 T03650195  RH  037%=      5-min Rain = 0
KHA3 191830Z 20016KT 37/19 A2988 RMK A01 T03650194  RH  037%=      5-min Rain = 0
KHA3 191831Z 21014G19KT 37/19 A2988 RMK A01 T03670193  RH  036%=      5-min Rain = 0
KHA3 191832Z 19016KT 37/19 A2988 RMK A01 T03690193  RH  036%=      5-min Rain = 0
KHA3 191833Z 20013KT 37/19 A2988 RMK A01 T03680193  RH  036%=      5-min Rain = 0
KHA3 191834Z 21013KT 37/20 A2988 RMK A01 T03660195  RH  037%=      5-min Rain = 0
KHA3 191835Z 20013G20KT 37/20 A2988 RMK A01 T03700198  RH  037%=      5-min Rain = 0
KHA3 191836Z 17015KT 37/20 A2988 RMK A01 T03730200  RH  037%=      5-min Rain = 0
KHA3 191837Z 19015KT 38/20 A2988 RMK A01 T03760200  RH  036%=      5-min Rain = 0
KHA3 191838Z 18015KT 38/20 A2988 RMK A01 T03750198  RH  036%=      5-min Rain = 0
KHA3 191839Z 16014KT 37/20 A2988 RMK A01 T03740201  RH  036%=      5-min Rain = 0
KHA3 191840Z 16014KT 38/20 A2988 RMK A01 T03760198  RH  036%=      5-min Rain = 0
KHA3 191841Z 17016KT 37/20 A2988 RMK A01 T03740196  RH  036%=      5-min Rain = 0
KHA3 191842Z 17015KT 37/20 A2988 RMK A01 T03710196  RH  036%=      5-min Rain = 0
KHA3 191843Z 19011KT 37/20 A2988 RMK A01 T03710199  RH  037%=      5-min Rain = 0
KHA3 191844Z 19012KT 37/20 A2988 RMK A01 T03730201  RH  037%=      5-min Rain = 0
KHA3 191845Z 19013G19KT 38/20 A2988 RMK A01 T03780203  RH  036%=      5-min Rain = 0
KHA3 191846Z 20016KT 38/20 A2987 RMK A01 T03780198  RH  035%=      5-min Rain = 0
KHA3 191847Z 17012KT 37/20 A2988 RMK A01 T03740197  RH  036%=      5-min Rain = 0
KHA3 191848Z 18015KT 37/20 A2987 RMK A01 T03730199  RH  036%=      5-min Rain = 0
KHA3 191849Z 18013G18KT 37/20 A2987 RMK A01 T03720195  RH  036%=      5-min Rain = 0
KHA3 191850Z 17014KT 37/20 A2987 RMK A01 T03700198  RH  037%=      5-min Rain = 0
KHA3 191851Z 17013KT 37/20 A2987 RMK A01 T03720195  RH  036%=      5-min Rain = 0
KHA3 191852Z 16010KT 37/20 A2987 RMK A01 T03720198  RH  036%=      5-min Rain = 0
KHA3 191853Z 17015KT 38/20 A2987 RMK A01 T03750199  RH  036%=      5-min Rain = 0
KHA3 191854Z 15015KT 38/20 A2987 RMK A01 T03800195  RH  034%=      5-min Rain = 0
KHA3 191855Z 17016KT 38/20 A2987 RMK A01 T03800196  RH  034%=      5-min Rain = 0
KHA3 191856Z 15015KT 38/19 A2987 RMK A01 T03770193  RH  034%=      5-min Rain = 0
KHA3 191857Z 15016KT 37/19 A2987 RMK A01 T03730194  RH  035%=      5-min Rain = 0
KHA3 191858Z 15016G21KT 37/19 A2987 RMK A01 T03720193  RH  035%=      5-min Rain = 0
KHA3 191859Z 15013KT 37/19 A2987 RMK A01 T03720194  RH  035%=      5-min Rain = 0
KHA3 191900Z 15011KT 37/20 A2987 RMK A01 T03730195  RH  035%=      5-min Rain = 0
KHA3 191901Z 17012KT 38/20 A2987 RMK A01 T03750198  RH  036%=      5-min Rain = 0
KHA3 191902Z 18012KT 38/20 A2987 RMK A01 T03770198  RH  035%=      5-min Rain = 0
KHA3 191903Z 19009KT 38/20 A2987 RMK A01 T03780195  RH  034%=      5-min Rain = 0
KHA3 191904Z 16012G17KT 38/20 A2987 RMK A01 T03770199  RH  036%=      5-min Rain = 0
KHA3 191905Z 18018KT 38/19 A2987 RMK A01 T03790193  RH  034%=      5-min Rain = 0
KHA3 191906Z 18015KT 38/19 A2987 RMK A01 T03770189  RH  034%=      5-min Rain = 0
KHA3 191907Z 18015G21KT 37/19 A2987 RMK A01 T03740191  RH  034%=      5-min Rain = 0
KHA3 191908Z 18019KT 37/19 A2987 RMK A01 T03740189  RH  034%=      5-min Rain = 0
KHA3 191909Z 19016KT 38/19 A2987 RMK A01 T03750187  RH  034%=      5-min Rain = 0
KHA3 191910Z 19017KT 37/19 A2987 RMK A01 T03740186  RH  033%=      5-min Rain = 0
KHA3 191911Z 17016KT 37/19 A2987 RMK A01 T03730190  RH  034%=      5-min Rain = 0
KHA3 191912Z 17015KT 38/20 A2987 RMK A01 T03750195  RH  035%=      5-min Rain = 0
KHA3 191913Z 18015KT 38/19 A2987 RMK A01 T03770193  RH  034%=      5-min Rain = 0
KHA3 191914Z 18011KT 38/19 A2987 RMK A01 T03750194  RH  035%=      5-min Rain = 0
KHA3 191915Z 18016KT 38/19 A2987 RMK A01 T03760193  RH  035%=      5-min Rain = 0
KHA3 191916Z 18017KT 38/19 A2987 RMK A01 T03760190  RH  034%=      5-min Rain = 0
KHA3 191917Z 18014KT 38/19 A2987 RMK A01 T03750192  RH  034%=      5-min Rain = 0
KHA3 191918Z 19015KT 38/19 A2987 RMK A01 T03760190  RH  034%=      5-min Rain = 0
KHA3 191919Z 19017KT 38/19 A2987 RMK A01 T03770191  RH  034%=      5-min Rain = 0
KHA3 191920Z 18014KT 38/19 A2987 RMK A01 T03770190  RH  034%=      5-min Rain = 0
KHA3 191921Z 19016G21KT 38/19 A2987 RMK A01 T03780190  RH  034%=      5-min Rain = 0
KHA3 191922Z 18016KT 38/19 A2986 RMK A01 T03790189  RH  033%=      5-min Rain = 0
KHA3 191923Z 18019KT 38/19 A2987 RMK A01 T03820187  RH  032%=      5-min Rain = 0
KHA3 191924Z 18016KT 38/19 A2987 RMK A01 T03820189  RH  033%=      5-min Rain = 0
KHA3 191925Z 18013KT 38/19 A2986 RMK A01 T03790189  RH  033%=      5-min Rain = 0
KHA3 191926Z 19013KT 38/19 A2986 RMK A01 T03770191  RH  034%=      5-min Rain = 0
KHA3 191927Z 18013KT 38/19 A2986 RMK A01 T03800191  RH  033%=      5-min Rain = 0
KHA3 191928Z 18014KT 38/19 A2986 RMK A01 T03830193  RH  033%=      5-min Rain = 0
KHA3 191929Z 17013KT 38/19 A2986 RMK A01 T03830189  RH  032%=      5-min Rain = 0
KHA3 191930Z 17014KT 38/19 A2986 RMK A01 T03810193  RH  034%=      5-min Rain = 0
KHA3 191931Z 18016KT 38/19 A2986 RMK A01 T03800193  RH  034%=      5-min Rain = 0
KHA3 191932Z 18014KT 38/20 A2986 RMK A01 T03790195  RH  034%=      5-min Rain = 0
KHA3 191933Z 18012KT 38/19 A2986 RMK A01 T03800194  RH  034%=      5-min Rain = 0
KHA3 191934Z 19016G21KT 38/19 A2986 RMK A01 T03840192  RH  033%=      5-min Rain = 0
KHA3 191935Z 19015KT 38/19 A2986 RMK A01 T03840190  RH  032%=      5-min Rain = 0
KHA3 191936Z 20016G21KT 39/19 A2986 RMK A01 T03850191  RH  032%=      5-min Rain = 0
KHA3 191937Z 20018KT 39/18 A2986 RMK A01 T03860184  RH  031%=      5-min Rain = 0
KHA3 191938Z 19015G21KT 38/19 A2986 RMK A01 T03840185  RH  031%=      5-min Rain = 0
KHA3 191939Z 18013KT 38/19 A2986 RMK A01 T03820188  RH  032%=      5-min Rain = 0
KHA3 191940Z 18014KT 38/19 A2986 RMK A01 T03820190  RH  033%=      5-min Rain = 0
KHA3 191941Z 18012G17KT 38/19 A2986 RMK A01 T03820190  RH  033%=      5-min Rain = 0
KHA3 191942Z 17015KT 38/20 A2986 RMK A01 T03840195  RH  033%=      5-min Rain = 0
KHA3 191943Z 16011KT 38/20 A2986 RMK A01 T03840195  RH  034%=      5-min Rain = 0
KHA3 191944Z 17013KT 38/20 A2986 RMK A01 T03830196  RH  034%=      5-min Rain = 0
KHA3 191945Z 17016G21KT 39/19 A2986 RMK A01 T03850193  RH  033%=      5-min Rain = 0
KHA3 191946Z 18014KT 39/19 A2986 RMK A01 T03850185  RH  031%=      5-min Rain = 0
KHA3 191947Z 19017KT 38/19 A2986 RMK A01 T03840185  RH  032%=      5-min Rain = 0
KHA3 191948Z 19013KT 38/19 A2986 RMK A01 T03830186  RH  032%=      5-min Rain = 0
KHA3 191949Z 20013KT 38/19 A2985 RMK A01 T03830192  RH  033%=      5-min Rain = 0
KHA3 191950Z 19014KT 38/19 A2985 RMK A01 T03840192  RH  033%=      5-min Rain = 0
KHA3 191951Z 17014KT 38/19 A2985 RMK A01 T03840194  RH  033%=      5-min Rain = 0
KHA3 191952Z 17012KT 39/20 A2985 RMK A01 T03850196  RH  034%=      5-min Rain = 0
KHA3 191953Z 19013KT 39/19 A2985 RMK A01 T03870193  RH  033%=      5-min Rain = 0
KHA3 191954Z 19013KT 39/19 A2985 RMK A01 T03860191  RH  032%=      5-min Rain = 0
KHA3 191955Z 20017KT 39/19 A2985 RMK A01 T03880191  RH  032%=      5-min Rain = 0
KHA3 191956Z 19017KT 39/19 A2985 RMK A01 T03900186  RH  031%=      5-min Rain = 0
KHA3 191957Z 19020KT 39/18 A2985 RMK A01 T03890182  RH  030%=      5-min Rain = 0
KHA3 191958Z 18017KT 39/18 A2985 RMK A01 T03870179  RH  030%=      5-min Rain = 0
KHA3 191959Z 18015KT 39/18 A2985 RMK A01 T03850179  RH  030%=      5-min Rain = 0
KHA3 192000Z 16011KT 38/18 A2985 RMK A01 T03840179  RH  030%=      5-min Rain = 0
KHA3 192001Z 17013KT 39/18 A2985 RMK A01 T03860181  RH  030%=      5-min Rain = 0
KHA3 192002Z 17015KT 39/18 A2985 RMK A01 T03880177  RH  029%=      5-min Rain = 0
KHA3 192003Z 17012KT 39/18 A2985 RMK A01 T03860182  RH  030%=      5-min Rain = 0
KHA3 192004Z 19013KT 39/19 A2985 RMK A01 T03850185  RH  031%=      5-min Rain = 0
KHA3 192005Z 19013G18KT 39/19 A2985 RMK A01 T03850185  RH  031%=      5-min Rain = 0
KHA3 192006Z 19013KT 39/19 A2985 RMK A01 T03850185  RH  031%=      5-min Rain = 0
KHA3 192007Z 18015KT 39/19 A2985 RMK A01 T03880186  RH  031%=      5-min Rain = 0
KHA3 192008Z 18013KT 39/19 A2985 RMK A01 T03880189  RH  032%=      5-min Rain = 0
KHA3 192009Z 17016G21KT 39/19 A2985 RMK A01 T03900192  RH  032%=      5-min Rain = 0
KHA3 192010Z 17015KT 39/19 A2984 RMK A01 T03890191  RH  032%=      5-min Rain = 0
KHA3 192011Z 17014KT 39/19 A2984 RMK A01 T03880192  RH  032%=      5-min Rain = 0
KHA3 192012Z 17016KT 39/19 A2984 RMK A01 T03890191  RH  032%=      5-min Rain = 0
KHA3 192013Z 17016KT 39/19 A2984 RMK A01 T03890188  RH  031%=      5-min Rain = 0
KHA3 192014Z 17018KT 39/19 A2985 RMK A01 T03900188  RH  031%=      5-min Rain = 0
KHA3 192015Z 17015KT 39/19 A2984 RMK A01 T03880187  RH  031%=      5-min Rain = 0
KHA3 192016Z 16015KT 39/19 A2984 RMK A01 T03870187  RH  031%=      5-min Rain = 0
KHA3 192017Z 17017KT 39/19 A2985 RMK A01 T03880185  RH  031%=      5-min Rain = 0
KHA3 192018Z 18013KT 39/19 A2984 RMK A01 T03880187  RH  031%=      5-min Rain = 0
KHA3 192019Z 19012KT 39/19 A2984 RMK A01 T03880190  RH  032%=      5-min Rain = 0
KHA3 192020Z 17011KT 39/19 A2984 RMK A01 T03880189  RH  032%=      5-min Rain = 0
KHA3 192021Z 15013KT 39/19 A2984 RMK A01 T03880193  RH  032%=      5-min Rain = 0
KHA3 192022Z 15012KT 39/19 A2984 RMK A01 T03900189  RH  031%=      5-min Rain = 0
KHA3 192023Z 16012KT 39/19 A2984 RMK A01 T03900192  RH  032%=      5-min Rain = 0
KHA3 192024Z 17011G16KT 39/19 A2984 RMK A01 T03910194  RH  032%=      5-min Rain = 0
KHA3 192025Z 16014KT 39/19 A2984 RMK A01 T03930193  RH  031%=      5-min Rain = 0
KHA3 192026Z 15017KT 39/19 A2984 RMK A01 T03930192  RH  031%=      5-min Rain = 0
KHA3 192027Z 15016KT 39/19 A2984 RMK A01 T03920188  RH  031%=      5-min Rain = 0
KHA3 192028Z 15013KT 39/19 A2984 RMK A01 T03880188  RH  031%=      5-min Rain = 0
KHA3 192029Z 17013KT 39/19 A2984 RMK A01 T03880190  RH  032%=      5-min Rain = 0
KHA3 192030Z 18011KT 39/18 A2984 RMK A01 T03880182  RH  030%=      5-min Rain = 0
KHA3 192031Z 20016KT 39/18 A2984 RMK A01 T03890176  RH  029%=      5-min Rain = 0
KHA3 192032Z 20018KT 39/18 A2984 RMK A01 T03910175  RH  028%=      5-min Rain = 0
KHA3 192033Z 19016KT 39/19 A2984 RMK A01 T03900185  RH  030%=      5-min Rain = 0
KHA3 192034Z 18017KT 39/19 A2984 RMK A01 T03910188  RH  031%=      5-min Rain = 0
KHA3 192035Z 18015KT 39/19 A2984 RMK A01 T03900187  RH  031%=      5-min Rain = 0
KHA3 192036Z 19014KT 39/19 A2984 RMK A01 T03890188  RH  031%=      5-min Rain = 0
KHA3 192037Z 17017G22KT 39/19 A2984 RMK A01 T03900189  RH  031%=      5-min Rain = 0
KHA3 192038Z 16019KT 39/19 A2984 RMK A01 T03920187  RH  031%=      5-min Rain = 0
KHA3 192039Z 18016KT 39/19 A2984 RMK A01 T03920186  RH  030%=      5-min Rain = 0
KHA3 192040Z 17015KT 39/19 A2984 RMK A01 T03910188  RH  031%=      5-min Rain = 0
KHA3 192041Z 17014KT 39/19 A2984 RMK A01 T03910188  RH  031%=      5-min Rain = 0
KHA3 192042Z 17015KT 39/19 A2984 RMK A01 T03930189  RH  031%=      5-min Rain = 0
KHA3 192043Z 16017KT 39/19 A2984 RMK A01 T03920188  RH  031%=      5-min Rain = 0
KHA3 192044Z 17018G25KT 39/19 A2984 RMK A01 T03920186  RH  030%=      5-min Rain = 0
KHA3 192045Z 16017G22KT 39/18 A2984 RMK A01 T03930180  RH  029%=      5-min Rain = 0
KHA3 192046Z 17015KT 39/18 A2984 RMK A01 T03920183  RH  030%=      5-min Rain = 0
KHA3 192047Z 18014KT 39/18 A2984 RMK A01 T03930182  RH  029%=      5-min Rain = 0
KHA3 192048Z 18014KT 40/19 A2984 RMK A01 T03950187  RH  030%=      5-min Rain = 0
KHA3 192049Z 18012KT 40/19 A2984 RMK A01 T03970185  RH  029%=      5-min Rain = 0
KHA3 192050Z 18012KT 40/19 A2984 RMK A01 T03970185  RH  029%=      5-min Rain = 0
KHA3 192051Z 17013KT 40/19 A2984 RMK A01 T03960187  RH  030%=      5-min Rain = 0
KHA3 192052Z 16013KT 40/19 A2984 RMK A01 T03970189  RH  030%=      5-min Rain = 0
KHA3 192053Z 16014KT 40/19 A2984 RMK A01 T03980187  RH  029%=      5-min Rain = 0
KHA3 192054Z 16015KT 40/19 A2984 RMK A01 T03970188  RH  030%=      5-min Rain = 0
KHA3 192055Z 19014KT 40/19 A2984 RMK A01 T03950186  RH  030%=      5-min Rain = 0
KHA3 192056Z 20011KT 39/19 A2984 RMK A01 T03930186  RH  030%=      5-min Rain = 0
KHA3 192057Z 18011KT 39/19 A2984 RMK A01 T03940187  RH  030%=      5-min Rain = 0
KHA3 192058Z 16014KT 39/19 A2984 RMK A01 T03940189  RH  030%=      5-min Rain = 0
KHA3 192059Z 15015G20KT 39/19 A2984 RMK A01 T03940188  RH  030%=      5-min Rain = 0
KHA3 192100Z 14014KT 39/19 A2984 RMK A01 T03930185  RH  030%=      5-min Rain = 0
KHA3 192101Z 15015KT 39/19 A2984 RMK A01 T03930187  RH  030%=      5-min Rain = 0
KHA3 192102Z 18015KT 40/19 A2984 RMK A01 T03950186  RH  030%=      5-min Rain = 0
KHA3 192103Z 19018G24KT 40/19 A2983 RMK A01 T03960186  RH  030%=      5-min Rain = 0
KHA3 192104Z 19018KT 39/18 A2983 RMK A01 T03940184  RH  030%=      5-min Rain = 0
KHA3 192105Z 17018KT 39/19 A2984 RMK A01 T03920185  RH  030%=      5-min Rain = 0
KHA3 192106Z 17015G20KT 39/18 A2984 RMK A01 T03890183  RH  030%=      5-min Rain = 0
KHA3 192107Z 19014KT 39/18 A2984 RMK A01 T03880183  RH  030%=      5-min Rain = 0
KHA3 192108Z 16013KT 39/19 A2984 RMK A01 T03870185  RH  031%=      5-min Rain = 0
KHA3 192109Z 15015KT 39/18 A2984 RMK A01 T03890184  RH  030%=      5-min Rain = 0
KHA3 192110Z 16014KT 39/18 A2984 RMK A01 T03900181  RH  030%=      5-min Rain = 0
KHA3 192111Z 16012KT 39/18 A2984 RMK A01 T03910182  RH  030%=      5-min Rain = 0
KHA3 192112Z 16012KT 39/18 A2984 RMK A01 T03910182  RH  030%=      5-min Rain = 0
KHA3 192113Z 14015G22KT 39/18 A2983 RMK A01 T03920182  RH  030%=      5-min Rain = 0
KHA3 192114Z 14018G23KT 39/18 A2983 RMK A01 T03910183  RH  030%=      5-min Rain = 0
KHA3 192115Z 16019KT 39/19 A2983 RMK A01 T03920185  RH  030%=      5-min Rain = 0
KHA3 192116Z 18014KT 39/18 A2983 RMK A01 T03920181  RH  029%=      5-min Rain = 0
KHA3 192117Z 18011KT 39/18 A2983 RMK A01 T03900183  RH  030%=      5-min Rain = 0
KHA3 192118Z 14013G19KT 39/18 A2983 RMK A01 T03900184  RH  030%=      5-min Rain = 0
KHA3 192119Z 16015G21KT 39/19 A2983 RMK A01 T03930188  RH  031%=      5-min Rain = 0
KHA3 192120Z 17015G21KT 40/19 A2983 RMK A01 T03970188  RH  030%=      5-min Rain = 0
KHA3 192121Z 16020KT 40/18 A2983 RMK A01 T03970183  RH  029%=      5-min Rain = 0
KHA3 192122Z 16016KT 39/19 A2983 RMK A01 T03930185  RH  030%=      5-min Rain = 0
KHA3 192123Z 18019KT 39/18 A2983 RMK A01 T03930184  RH  030%=      5-min Rain = 0
KHA3 192124Z 17019G24KT 39/19 A2983 RMK A01 T03910185  RH  030%=      5-min Rain = 0
KHA3 192125Z 17015KT 39/18 A2983 RMK A01 T03900184  RH  030%=      5-min Rain = 0
KHA3 192126Z 18019KT 39/18 A2983 RMK A01 T03900184  RH  030%=      5-min Rain = 0
KHA3 192127Z 19017KT 39/18 A2983 RMK A01 T03900184  RH  030%=      5-min Rain = 0
KHA3 192128Z 17016KT 39/18 A2983 RMK A01 T03900184  RH  030%=      5-min Rain = 0
KHA3 192129Z 16017KT 39/19 A2983 RMK A01 T03910185  RH  030%=      5-min Rain = 0
KHA3 192130Z 16013KT 39/18 A2983 RMK A01 T03920184  RH  030%=      5-min Rain = 0
KHA3 192131Z 17015KT 39/19 A2983 RMK A01 T03910185  RH  030%=      5-min Rain = 0
KHA3 192132Z 16018KT 39/18 A2983 RMK A01 T03920184  RH  030%=      5-min Rain = 0
KHA3 192133Z 18018KT 39/19 A2983 RMK A01 T03940186  RH  030%=      5-min Rain = 0
KHA3 192134Z 18018KT 39/18 A2983 RMK A01 T03940183  RH  029%=      5-min Rain = 0
KHA3 192135Z 17013KT 39/18 A2983 RMK A01 T03920184  RH  030%=      5-min Rain = 0
KHA3 192136Z 18015KT 39/19 A2983 RMK A01 T03930185  RH  030%=      5-min Rain = 0
KHA3 192137Z 17017G22KT 39/18 A2983 RMK A01 T03940182  RH  029%=      5-min Rain = 0
KHA3 192138Z 16015KT 39/18 A2983 RMK A01 T03920181  RH  029%=      5-min Rain = 0
KHA3 192139Z 16013KT 39/18 A2983 RMK A01 T03920184  RH  030%=      5-min Rain = 0
KHA3 192140Z 16012KT 39/18 A2982 RMK A01 T03940184  RH  030%=      5-min Rain = 0
KHA3 192141Z 15013KT 40/19 A2982 RMK A01 T03950185  RH  030%=      5-min Rain = 0
KHA3 192142Z 17017G22KT 40/18 A2982 RMK A01 T03960184  RH  029%=      5-min Rain = 0
KHA3 192143Z 17020KT 40/18 A2982 RMK A01 T03950184  RH  029%=      5-min Rain = 0
KHA3 192144Z 16018KT 39/18 A2983 RMK A01 T03930182  RH  029%=      5-min Rain = 0
KHA3 192145Z 17014KT 39/18 A2983 RMK A01 T03910183  RH  030%=      5-min Rain = 0
KHA3 192146Z 15014KT 39/18 A2983 RMK A01 T03920184  RH  030%=      5-min Rain = 0
KHA3 192147Z 14016G21KT 39/18 A2982 RMK A01 T03930183  RH  030%=      5-min Rain = 0
KHA3 192148Z 16018G24KT 39/19 A2982 RMK A01 T03930187  RH  030%=      5-min Rain = 0
KHA3 192149Z 16017G22KT 39/18 A2983 RMK A01 T03930184  RH  030%=      5-min Rain = 0
KHA3 192150Z 16017KT 39/18 A2982 RMK A01 T03920183  RH  030%=      5-min Rain = 0
KHA3 192151Z 15016KT 39/18 A2982 RMK A01 T03900183  RH  030%=      5-min Rain = 0
KHA3 192152Z 18018KT 39/18 A2982 RMK A01 T03890184  RH  030%=      5-min Rain = 0
KHA3 192153Z 17014G19KT 39/19 A2982 RMK A01 T03910185  RH  030%=      5-min Rain = 0
KHA3 192154Z 17014KT 39/19 A2982 RMK A01 T03920185  RH  030%=      5-min Rain = 0
KHA3 192155Z 18015KT 39/18 A2982 RMK A01 T03930184  RH  030%=      5-min Rain = 0
KHA3 192156Z 16011KT 39/19 A2982 RMK A01 T03930187  RH  030%=      5-min Rain = 0
KHA3 192157Z 16014G19KT 40/19 A2982 RMK A01 T03960187  RH  030%=      5-min Rain = 0
KHA3 192158Z 17013G18KT 40/19 A2982 RMK A01 T03960187  RH  030%=      5-min Rain = 0
KHA3 192159Z 15016KT 40/19 A2982 RMK A01 T03960186  RH  030%=      5-min Rain = 0
KHA3 192200Z 16015G20KT 40/18 A2982 RMK A01 T03950184  RH  029%=      5-min Rain = 0
KHA3 192201Z 15017KT 39/19 A2982 RMK A01 T03940185  RH  030%=      5-min Rain = 0
KHA3 192202Z 14016G21KT 39/18 A2982 RMK A01 T03920184  RH  030%=      5-min Rain = 0
KHA3 192203Z 15018KT 39/19 A2982 RMK A01 T03910186  RH  030%=      5-min Rain = 0
KHA3 192204Z 16017KT 39/18 A2982 RMK A01 T03900183  RH  030%=      5-min Rain = 0
KHA3 192205Z 16013KT 39/19 A2982 RMK A01 T03880187  RH  031%=      5-min Rain = 0
KHA3 192206Z 16013KT 39/19 A2982 RMK A01 T03920190  RH  031%=      5-min Rain = 0
KHA3 192207Z 17017KT 40/19 A2982 RMK A01 T03950187  RH  030%=      5-min Rain = 0
KHA3 192208Z 17015KT 40/18 A2982 RMK A01 T03950182  RH  029%=      5-min Rain = 0
KHA3 192209Z 17017KT 39/18 A2982 RMK A01 T03930180  RH  029%=      5-min Rain = 0
KHA3 192210Z 18015KT 39/18 A2982 RMK A01 T03910183  RH  030%=      5-min Rain = 0
KHA3 192211Z 18015KT 39/18 A2982 RMK A01 T03910183  RH  030%=      5-min Rain = 0
KHA3 192212Z 17016KT 39/18 A2982 RMK A01 T03920183  RH  030%=      5-min Rain = 0
KHA3 192213Z 16014KT 39/18 A2982 RMK A01 T03920184  RH  030%=      5-min Rain = 0
KHA3 192214Z 17014KT 39/19 A2982 RMK A01 T03920186  RH  030%=      5-min Rain = 0
KHA3 192215Z 16015G20KT 39/19 A2982 RMK A01 T03940186  RH  030%=      5-min Rain = 0
KHA3 192216Z 16016KT 40/18 A2981 RMK A01 T03950182  RH  029%=      5-min Rain = 0
KHA3 192217Z 15012KT 39/18 A2981 RMK A01 T03930182  RH  029%=      5-min Rain = 0
KHA3 192218Z 16016KT 39/18 A2981 RMK A01 T03920183  RH  030%=      5-min Rain = 0
KHA3 192219Z 17014KT 39/18 A2981 RMK A01 T03920184  RH  030%=      5-min Rain = 0
KHA3 192220Z 17014G19KT 39/19 A2981 RMK A01 T03910186  RH  030%=      5-min Rain = 0
KHA3 192221Z 19015KT 39/18 A2981 RMK A01 T03920180  RH  029%=      5-min Rain = 0
KHA3 192222Z 19016KT 39/18 A2981 RMK A01 T03940181  RH  029%=      5-min Rain = 0
KHA3 192223Z 19017KT 39/18 A2981 RMK A01 T03940179  RH  029%=      5-min Rain = 0
KHA3 192224Z 18014KT 39/18 A2981 RMK A01 T03940178  RH  028%=      5-min Rain = 0
KHA3 192225Z 18014KT 39/18 A2981 RMK A01 T03930179  RH  029%=      5-min Rain = 0
KHA3 192226Z 20013KT 39/18 A2981 RMK A01 T03930178  RH  029%=      5-min Rain = 0
KHA3 192227Z 18015KT 39/18 A2981 RMK A01 T03930181  RH  029%=      5-min Rain = 0
KHA3 192228Z 16013G20KT 39/19 A2981 RMK A01 T03940185  RH  030%=      5-min Rain = 0
KHA3 192229Z 16018KT 40/18 A2981 RMK A01 T03950183  RH  029%=      5-min Rain = 0
KHA3 192230Z 17019KT 39/18 A2981 RMK A01 T03920181  RH  029%=      5-min Rain = 0
KHA3 192231Z 17017KT 39/18 A2981 RMK A01 T03910181  RH  029%=      5-min Rain = 0
KHA3 192232Z 16014KT 39/18 A2981 RMK A01 T03910180  RH  029%=      5-min Rain = 0
KHA3 192233Z 16018KT 39/18 A2981 RMK A01 T03920179  RH  029%=      5-min Rain = 0
KHA3 192234Z 18014KT 39/18 A2981 RMK A01 T03920178  RH  029%=      5-min Rain = 0
KHA3 192235Z 18015KT 39/18 A2981 RMK A01 T03930177  RH  029%=      5-min Rain = 0
KHA3 192236Z 18015KT 39/18 A2981 RMK A01 T03920177  RH  029%=      5-min Rain = 0
KHA3 192237Z 17013KT 39/18 A2981 RMK A01 T03900176  RH  029%=      5-min Rain = 0
KHA3 192238Z 18013KT 39/18 A2981 RMK A01 T03900180  RH  029%=      5-min Rain = 0
KHA3 192239Z 19016G21KT 39/18 A2981 RMK A01 T03910180  RH  029%=      5-min Rain = 0
KHA3 192240Z 17016G23KT 39/18 A2981 RMK A01 T03910182  RH  030%=      5-min Rain = 0
KHA3 192241Z 18019KT 39/18 A2981 RMK A01 T03900182  RH  030%=      5-min Rain = 0
KHA3 192242Z 17018KT 39/18 A2981 RMK A01 T03900181  RH  030%=      5-min Rain = 0
KHA3 192243Z 17017KT 39/18 A2981 RMK A01 T03900182  RH  030%=      5-min Rain = 0
KHA3 192244Z 18015KT 39/18 A2981 RMK A01 T03890181  RH  030%=      5-min Rain = 0
KHA3 192245Z 17014KT 39/18 A2981 RMK A01 T03890182  RH  030%=      5-min Rain = 0
KHA3 192246Z 16015KT 39/18 A2981 RMK A01 T03900183  RH  030%=      5-min Rain = 0
KHA3 192247Z 16014KT 39/18 A2981 RMK A01 T03910180  RH  029%=      5-min Rain = 0
KHA3 192248Z 15011KT 39/18 A2981 RMK A01 T03900183  RH  030%=      5-min Rain = 0
KHA3 192249Z 18013KT 39/18 A2981 RMK A01 T03900183  RH  030%=      5-min Rain = 0
KHA3 192250Z 18013G18KT 39/18 A298 RMK A01 T03910180  RH  029%=      5-min Rain = 0
KHA3 192251Z 18017G22KT 39/18 A298 RMK A01 T03910180  RH  029%=      5-min Rain = 0
KHA3 192252Z 18018KT 39/18 A298 RMK A01 T03920179  RH  029%=      5-min Rain = 0
KHA3 192253Z 16018KT 39/18 A298 RMK A01 T03910180  RH  029%=      5-min Rain = 0
KHA3 192254Z 16017KT 39/18 A298 RMK A01 T03900180  RH  030%=      5-min Rain = 0
KHA3 192255Z 17014KT 39/18 A298 RMK A01 T03890182  RH  030%=      5-min Rain = 0
KHA3 192256Z 16019KT 39/18 A298 RMK A01 T03900182  RH  030%=      5-min Rain = 0
KHA3 192257Z 16016KT 39/18 A298 RMK A01 T03890180  RH  030%=      5-min Rain = 0
KHA3 192258Z 18016KT 39/18 A298 RMK A01 T03880182  RH  030%=      5-min Rain = 0
KHA3 192259Z 16015KT 39/18 A298 RMK A01 T03880183  RH  030%=      5-min Rain = 0
KHA3 192300Z 16014KT 39/18 A298 RMK A01 T03880184  RH  031%=      5-min Rain = 0
KHA3 192301Z 16015KT 39/19 A298 RMK A01 T03900186  RH  031%=      5-min Rain = 0
KHA3 192302Z 18014KT 39/18 A298 RMK A01 T03900184  RH  030%=      5-min Rain = 0
KHA3 192303Z 16013KT 39/19 A298 RMK A01 T03890185  RH  031%=      5-min Rain = 0
KHA3 192304Z 16015KT 39/19 A298 RMK A01 T03890186  RH  031%=      5-min Rain = 0
KHA3 192305Z 15014KT 39/18 A298 RMK A01 T03890183  RH  030%=      5-min Rain = 0
KHA3 192306Z 15019G24KT 39/18 A298 RMK A01 T03890182  RH  030%=      5-min Rain = 0
KHA3 192307Z 15021KT 39/18 A298 RMK A01 T03880179  RH  030%=      5-min Rain = 0
KHA3 192308Z 16018KT 39/18 A298 RMK A01 T03870180  RH  030%=      5-min Rain = 0
KHA3 192309Z 17015KT 39/18 A298 RMK A01 T03870182  RH  030%=      5-min Rain = 0
KHA3 192310Z 17017KT 39/18 A298 RMK A01 T03890183  RH  030%=      5-min Rain = 0
KHA3 192311Z 17017KT 39/18 A298 RMK A01 T03900181  RH  030%=      5-min Rain = 0
KHA3 192312Z 16017KT 39/18 A298 RMK A01 T03890180  RH  030%=      5-min Rain = 0
KHA3 192313Z 16018G23KT 39/18 A298 RMK A01 T03890181  RH  030%=      5-min Rain = 0
KHA3 192314Z 18016KT 39/18 A298 RMK A01 T03890182  RH  030%=      5-min Rain = 0
KHA3 192315Z 18016KT 39/18 A298 RMK A01 T03880180  RH  030%=      5-min Rain = 0
KHA3 192316Z 17012KT 39/18 A298 RMK A01 T03870183  RH  031%=      5-min Rain = 0
KHA3 192317Z 16015KT 39/19 A298 RMK A01 T03880185  RH  031%=      5-min Rain = 0
KHA3 192318Z 17013KT 39/18 A298 RMK A01 T03900184  RH  030%=      5-min Rain = 0
KHA3 192319Z 18017KT 39/18 A298 RMK A01 T03910182  RH  030%=      5-min Rain = 0
KHA3 192320Z 17018KT 39/18 A298 RMK A01 T03880179  RH  030%=      5-min Rain = 0
KHA3 192321Z 17016KT 39/18 A298 RMK A01 T03860180  RH  030%=      5-min Rain = 0
KHA3 192322Z 17015KT 39/18 A298 RMK A01 T03860180  RH  030%=      5-min Rain = 0
KHA3 192323Z 17015KT 39/18 A298 RMK A01 T03860180  RH  030%=      5-min Rain = 0
KHA3 192324Z 16015G20KT 39/18 A298 RMK A01 T03860181  RH  030%=      5-min Rain = 0
KHA3 192325Z 16014KT 39/18 A298 RMK A01 T03860183  RH  031%=      5-min Rain = 0
KHA3 192326Z 17018KT 39/18 A298 RMK A01 T03870181  RH  030%=      5-min Rain = 0
KHA3 192327Z 15018KT 39/18 A298 RMK A01 T03870181  RH  030%=      5-min Rain = 0
KHA3 192328Z 15019KT 39/18 A298 RMK A01 T03860182  RH  030%=      5-min Rain = 0
KHA3 192329Z 15016G21KT 39/18 A298 RMK A01 T03850183  RH  031%=      5-min Rain = 0
KHA3 192330Z 15016KT 39/18 A298 RMK A01 T03850183  RH  031%=      5-min Rain = 0
KHA3 192331Z 16014KT 38/18 A298 RMK A01 T03840183  RH  031%=      5-min Rain = 0
KHA3 192332Z 17014KT 39/19 A298 RMK A01 T03850185  RH  031%=      5-min Rain = 0
KHA3 192333Z 18015G20KT 39/19 A298 RMK A01 T03860185  RH  031%=      5-min Rain = 0
KHA3 192334Z 17019KT 39/18 A298 RMK A01 T03870182  RH  030%=      5-min Rain = 0
KHA3 192335Z 17018KT 39/18 A298 RMK A01 T03870178  RH  030%=      5-min Rain = 0
KHA3 192336Z 17019KT 39/18 A298 RMK A01 T03860179  RH  030%=      5-min Rain = 0
KHA3 192337Z 17019KT 39/18 A298 RMK A01 T03850179  RH  030%=      5-min Rain = 0
KHA3 192338Z 18020KT 39/18 A298 RMK A01 T03850178  RH  030%=      5-min Rain = 0
KHA3 192339Z 18015KT 38/18 A298 RMK A01 T03840179  RH  030%=      5-min Rain = 0
KHA3 192340Z 18015KT 38/18 A298 RMK A01 T03840178  RH  030%=      5-min Rain = 0
KHA3 192341Z 18012KT 38/18 A298 RMK A01 T03840181  RH  031%=      5-min Rain = 0
KHA3 192342Z 17013KT 39/18 A298 RMK A01 T03860182  RH  031%=      5-min Rain = 0
KHA3 192343Z 16018KT 39/18 A298 RMK A01 T03860180  RH  030%=      5-min Rain = 0
KHA3 192344Z 18014KT 39/18 A298 RMK A01 T03860182  RH  031%=      5-min Rain = 0
KHA3 192345Z 17016G21KT 39/18 A298 RMK A01 T03850181  RH  030%=      5-min Rain = 0
KHA3 192346Z 18017KT 39/18 A298 RMK A01 T03850180  RH  030%=      5-min Rain = 0
KHA3 192347Z 16016KT 38/18 A298 RMK A01 T03840181  RH  031%=      5-min Rain = 0
KHA3 192348Z 16016KT 38/18 A298 RMK A01 T03830182  RH  031%=      5-min Rain = 0
KHA3 192349Z 17017KT 38/18 A298 RMK A01 T03830182  RH  031%=      5-min Rain = 0
KHA3 192350Z 15015KT 38/18 A298 RMK A01 T03820181  RH  031%=      5-min Rain = 0
KHA3 192351Z 16019KT 38/18 A298 RMK A01 T03820181  RH  031%=      5-min Rain = 0
KHA3 192352Z 16018KT 38/18 A298 RMK A01 T03820179  RH  031%=      5-min Rain = 0
KHA3 192353Z 16016KT 38/18 A298 RMK A01 T03810180  RH  031%=      5-min Rain = 0
KHA3 192354Z 17017KT 38/18 A298 RMK A01 T03810181  RH  031%=      5-min Rain = 0
KHA3 192355Z 17015KT 38/18 A298 RMK A01 T03810181  RH  031%=      5-min Rain = 0
KHA3 192356Z 17015KT 38/18 A298 RMK A01 T03810180  RH  031%=      5-min Rain = 0
KHA3 192357Z 17013KT 38/18 A298 RMK A01 T03810182  RH  031%=      5-min Rain = 0
KHA3 192358Z 17014KT 38/18 A298 RMK A01 T03820182  RH  031%=      5-min Rain = 0
KHA3 192359Z 17014KT 38/18 A298 RMK A01 T03820181  RH  031%=      5-min Rain = 0
KHA3 200000Z 17016KT 38/18 A298 RMK A01 T03820182  RH  031%=      5-min Rain = 0
KHA3 200001Z 16013KT 38/18 A298 RMK A01 T03820182  RH  031%=      5-min Rain = 0
KHA3 200002Z 16015KT 38/18 A298 RMK A01 T03820183  RH  031%=      5-min Rain = 0
KHA3 200003Z 15014G19KT 38/18 A298 RMK A01 T03820182  RH  031%=      5-min Rain = 0
KHA3 200004Z 16016KT 38/18 A298 RMK A01 T03820182  RH  031%=      5-min Rain = 0
KHA3 200005Z 17016KT 38/18 A298 RMK A01 T03810182  RH  031%=      5-min Rain = 0
KHA3 200006Z 16014KT 38/18 A298 RMK A01 T03810181  RH  031%=      5-min Rain = 0
KHA3 200007Z 17017KT 38/18 A298 RMK A01 T03810179  RH  031%=      5-min Rain = 0
KHA3 200008Z 16014KT 38/18 A298 RMK A01 T03800180  RH  031%=      5-min Rain = 0
KHA3 200009Z 16012KT 38/18 A298 RMK A01 T03800182  RH  031%=      5-min Rain = 0
KHA3 200010Z 16016KT 38/18 A298 RMK A01 T03800180  RH  031%=      5-min Rain = 0
KHA3 200011Z 16016KT 38/18 A298 RMK A01 T03800180  RH  031%=      5-min Rain = 0
KHA3 200012Z 16015KT 38/18 A298 RMK A01 T03800179  RH  031%=      5-min Rain = 0
KHA3 200013Z 17015KT 38/18 A298 RMK A01 T03790179  RH  031%=      5-min Rain = 0
KHA3 200014Z 16014KT 38/18 A298 RMK A01 T03790178  RH  031%=      5-min Rain = 0
KHA3 200015Z 16014KT 38/18 A298 RMK A01 T03790180  RH  031%=      5-min Rain = 0
KHA3 200016Z 17015G21KT 38/18 A298 RMK A01 T03790179  RH  031%=      5-min Rain = 0
KHA3 200017Z 17020KT 38/18 A298 RMK A01 T03790177  RH  031%=      5-min Rain = 0
KHA3 200018Z 17015KT 38/18 A298 RMK A01 T03780178  RH  031%=      5-min Rain = 0
KHA3 200019Z 17018KT 38/18 A298 RMK A01 T03770179  RH  031%=      5-min Rain = 0
KHA3 200020Z 17016KT 38/18 A298 RMK A01 T03770178  RH  031%=      5-min Rain = 0
KHA3 200021Z 17013KT 38/18 A298 RMK A01 T03770179  RH  031%=      5-min Rain = 0
KHA3 200022Z 17012KT 38/18 A298 RMK A01 T03770181  RH  032%=      5-min Rain = 0
KHA3 200023Z 17013KT 38/18 A298 RMK A01 T03770180  RH  032%=      5-min Rain = 0
KHA3 200024Z 17017KT 38/18 A298 RMK A01 T03770178  RH  031%=      5-min Rain = 0
KHA3 200025Z 17015KT 38/18 A298 RMK A01 T03770177  RH  031%=      5-min Rain = 0
KHA3 200026Z 16011KT 38/18 A298 RMK A01 T03760180  RH  032%=      5-min Rain = 0
KHA3 200027Z 16013KT 38/18 A298 RMK A01 T03760181  RH  032%=      5-min Rain = 0
KHA3 200028Z 16014KT 38/18 A298 RMK A01 T03760180  RH  032%=      5-min Rain = 0
KHA3 200029Z 16013KT 38/18 A298 RMK A01 T03760180  RH  032%=      5-min Rain = 0
KHA3 200030Z 16013KT 38/18 A298 RMK A01 T03750180  RH  032%=      5-min Rain = 0
KHA3 200031Z 16013KT 38/18 A298 RMK A01 T03750181  RH  032%=      5-min Rain = 0
KHA3 200032Z 17013KT 38/18 A298 RMK A01 T03750180  RH  032%=      5-min Rain = 0
KHA3 200033Z 17013KT 38/18 A298 RMK A01 T03750180  RH  032%=      5-min Rain = 0
KHA3 200034Z 16013KT 38/18 A298 RMK A01 T03750181  RH  032%=      5-min Rain = 0
KHA3 200035Z 17013KT 37/18 A298 RMK A01 T03740180  RH  032%=      5-min Rain = 0
KHA3 200036Z 16014KT 37/18 A298 RMK A01 T03740179  RH  032%=      5-min Rain = 0
KHA3 200037Z 15015KT 37/18 A298 RMK A01 T03730178  RH  032%=      5-min Rain = 0
KHA3 200038Z 16016KT 37/18 A298 RMK A01 T03730177  RH  032%=      5-min Rain = 0
KHA3 200039Z 16019KT 37/18 A298 RMK A01 T03720176  RH  032%=      5-min Rain = 0
KHA3 200040Z 16018KT 37/18 A298 RMK A01 T03720175  RH  031%=      5-min Rain = 0
KHA3 200041Z 16015KT 37/18 A298 RMK A01 T03720176  RH  032%=      5-min Rain = 0
KHA3 200042Z 15015KT 37/18 A298 RMK A01 T03710176  RH  032%=      5-min Rain = 0
KHA3 200043Z 17015KT 37/18 A298 RMK A01 T03710177  RH  032%=      5-min Rain = 0
KHA3 200044Z 15017KT 37/18 A298 RMK A01 T03710177  RH  032%=      5-min Rain = 0
KHA3 200045Z 16015KT 37/18 A2981 RMK A01 T03710176  RH  032%=      5-min Rain = 0
KHA3 200046Z 16014KT 37/18 A2981 RMK A01 T03700177  RH  032%=      5-min Rain = 0
KHA3 200047Z 16015KT 37/18 A2981 RMK A01 T03700178  RH  032%=      5-min Rain = 0
KHA3 200048Z 16015KT 37/18 A2981 RMK A01 T03700177  RH  032%=      5-min Rain = 0
KHA3 200049Z 16012KT 37/18 A2981 RMK A01 T03690178  RH  033%=      5-min Rain = 0
KHA3 200050Z 16013KT 37/18 A2981 RMK A01 T03690178  RH  033%=      5-min Rain = 0
KHA3 200051Z 16014KT 37/18 A2981 RMK A01 T03690178  RH  033%=      5-min Rain = 0
KHA3 200052Z 16014KT 37/18 A2981 RMK A01 T03680178  RH  033%=      5-min Rain = 0
KHA3 200053Z 17012KT 37/18 A2981 RMK A01 T03670178  RH  033%=      5-min Rain = 0
KHA3 200054Z 17018KT 37/18 A2981 RMK A01 T03670177  RH  033%=      5-min Rain = 0
KHA3 200055Z 17016KT 37/18 A2981 RMK A01 T03670175  RH  032%=      5-min Rain = 0
KHA3 200056Z 17015KT 37/17 A2981 RMK A01 T03670174  RH  032%=      5-min Rain = 0
KHA3 200057Z 16014KT 37/18 A2981 RMK A01 T03670175  RH  032%=      5-min Rain = 0
KHA3 200058Z 17013KT 37/18 A2981 RMK A01 T03670176  RH  033%=      5-min Rain = 0
KHA3 200059Z 16013KT 37/18 A2981 RMK A01 T03660176  RH  033%=      5-min Rain = 0
KHA3 200100Z 16011KT 37/18 A2981 RMK A01 T03650176  RH  033%=      5-min Rain = 0
KHA3 200101Z 16011G16KT 37/18 A2981 RMK A01 T03650177  RH  033%=      5-min Rain = 0
KHA3 200102Z 16016KT 36/18 A2981 RMK A01 T03640176  RH  033%=      5-min Rain = 0
KHA3 200103Z 16014KT 36/18 A2981 RMK A01 T03630175  RH  033%=      5-min Rain = 0
KHA3 200104Z 16016KT 36/18 A2981 RMK A01 T03630175  RH  033%=      5-min Rain = 0
KHA3 200105Z 16014KT 36/17 A2981 RMK A01 T03630174  RH  033%=      5-min Rain = 0
KHA3 200106Z 16015KT 36/18 A2981 RMK A01 T03620175  RH  033%=      5-min Rain = 0
KHA3 200107Z 16013KT 36/17 A2981 RMK A01 T03620174  RH  033%=      5-min Rain = 0
KHA3 200108Z 16015KT 36/17 A2981 RMK A01 T03620174  RH  033%=      5-min Rain = 0
KHA3 200109Z 16014KT 36/17 A2981 RMK A01 T03610173  RH  033%=      5-min Rain = 0
KHA3 200110Z 16014G20KT 36/17 A2981 RMK A01 T03610174  RH  033%=      5-min Rain = 0
KHA3 200111Z 16016KT 36/17 A2981 RMK A01 T03600173  RH  033%=      5-min Rain = 0
KHA3 200112Z 16015KT 36/17 A2981 RMK A01 T03600174  RH  033%=      5-min Rain = 0
KHA3 200113Z 16014KT 36/17 A2981 RMK A01 T03600174  RH  033%=      5-min Rain = 0
KHA3 200114Z 16014G19KT 36/17 A2981 RMK A01 T03590174  RH  034%=      5-min Rain = 0
KHA3 200115Z 15013KT 36/18 A2981 RMK A01 T03590175  RH  034%=      5-min Rain = 0
KHA3 200116Z 15015KT 36/18 A2981 RMK A01 T03580175  RH  034%=      5-min Rain = 0
KHA3 200117Z 16011KT 36/18 A2981 RMK A01 T03580176  RH  034%=      5-min Rain = 0
KHA3 200118Z 16013KT 36/18 A2981 RMK A01 T03570176  RH  034%=      5-min Rain = 0
KHA3 200119Z 16014KT 36/18 A2981 RMK A01 T03560176  RH  035%=      5-min Rain = 0
KHA3 200120Z 15013KT 36/18 A2981 RMK A01 T03560177  RH  035%=      5-min Rain = 0
KHA3 200121Z 15011KT 36/18 A2982 RMK A01 T03550178  RH  035%=      5-min Rain = 0
KHA3 200122Z 15012KT 35/18 A2982 RMK A01 T03540179  RH  035%=      5-min Rain = 0
KHA3 200123Z 15013KT 35/18 A2982 RMK A01 T03530179  RH  036%=      5-min Rain = 0
KHA3 200124Z 16014KT 35/18 A2982 RMK A01 T03530180  RH  036%=      5-min Rain = 0
KHA3 200125Z 15013KT 35/18 A2982 RMK A01 T03530180  RH  036%=      5-min Rain = 0
KHA3 200126Z 15014KT 35/18 A2982 RMK A01 T03520180  RH  036%=      5-min Rain = 0
KHA3 200127Z 16013KT 35/18 A2982 RMK A01 T03520180  RH  036%=      5-min Rain = 0
KHA3 200128Z 16015G21KT 35/18 A2982 RMK A01 T03510180  RH  036%=      5-min Rain = 0
KHA3 200129Z 16019KT 35/18 A2982 RMK A01 T03510179  RH  036%=      5-min Rain = 0
KHA3 200130Z 16018KT 35/18 A2982 RMK A01 T03510178  RH  036%=      5-min Rain = 0
KHA3 200131Z 15018KT 35/18 A2982 RMK A01 T03510178  RH  036%=      5-min Rain = 0
KHA3 200132Z 15017KT 35/18 A2982 RMK A01 T03510178  RH  036%=      5-min Rain = 0
KHA3 200133Z 15015KT 35/18 A2982 RMK A01 T03510178  RH  036%=      5-min Rain = 0
KHA3 200134Z 16017KT 35/18 A2982 RMK A01 T03510178  RH  036%=      5-min Rain = 0
KHA3 200135Z 16017KT 35/18 A2982 RMK A01 T03510178  RH  036%=      5-min Rain = 0
KHA3 200136Z 16016KT 35/18 A2982 RMK A01 T03500178  RH  036%=      5-min Rain = 0
KHA3 200137Z 16016KT 35/18 A2982 RMK A01 T03500177  RH  036%=      5-min Rain = 0
KHA3 200138Z 16016KT 35/18 A2982 RMK A01 T03500177  RH  036%=      5-min Rain = 0
KHA3 200139Z 16015KT 35/18 A2982 RMK A01 T03490177  RH  036%=      5-min Rain = 0
KHA3 200140Z 16014G19KT 35/18 A2982 RMK A01 T03480177  RH  036%=      5-min Rain = 0
KHA3 200141Z 16014KT 35/18 A2982 RMK A01 T03470177  RH  037%=      5-min Rain = 0
KHA3 200142Z 16016KT 35/18 A2982 RMK A01 T03460176  RH  037%=      5-min Rain = 0
KHA3 200143Z 16016KT 35/18 A2982 RMK A01 T03460176  RH  036%=      5-min Rain = 0
KHA3 200144Z 16019KT 35/18 A2982 RMK A01 T03470175  RH  036%=      5-min Rain = 0
KHA3 200145Z 15016KT 35/18 A2982 RMK A01 T03470175  RH  036%=      5-min Rain = 0
KHA3 200146Z 16015G20KT 35/18 A2982 RMK A01 T03480175  RH  036%=      5-min Rain = 0
KHA3 200147Z 16013KT 35/18 A2982 RMK A01 T03470175  RH  036%=      5-min Rain = 0
KHA3 200148Z 16013KT 35/18 A2982 RMK A01 T03460176  RH  037%=      5-min Rain = 0
KHA3 200149Z 16013KT 34/18 A2982 RMK A01 T03440175  RH  037%=      5-min Rain = 0
KHA3 200150Z 16017KT 34/18 A2982 RMK A01 T03440175  RH  037%=      5-min Rain = 0
KHA3 200151Z 16016KT 34/17 A2982 RMK A01 T03440174  RH  036%=      5-min Rain = 0
KHA3 200152Z 16014KT 35/17 A2982 RMK A01 T03450174  RH  036%=      5-min Rain = 0
KHA3 200153Z 16014KT 35/18 A2982 RMK A01 T03450175  RH  036%=      5-min Rain = 0
KHA3 200154Z 15013KT 34/18 A2983 RMK A01 T03440175  RH  037%=      5-min Rain = 0
KHA3 200155Z 15012KT 34/18 A2983 RMK A01 T03440175  RH  037%=      5-min Rain = 0
KHA3 200156Z 16012KT 34/18 A2983 RMK A01 T03430175  RH  037%=      5-min Rain = 0
KHA3 200157Z 15012KT 34/18 A2983 RMK A01 T03410175  RH  037%=      5-min Rain = 0
KHA3 200158Z 15013KT 34/18 A2983 RMK A01 T03410175  RH  037%=      5-min Rain = 0
KHA3 200159Z 15015KT 34/17 A2983 RMK A01 T03400174  RH  037%=      5-min Rain = 0
KHA3 200200Z 15014KT 34/17 A2983 RMK A01 T03410172  RH  037%=      5-min Rain = 0
KHA3 200201Z 15014KT 34/17 A2983 RMK A01 T03420172  RH  037%=      5-min Rain = 0
KHA3 200202Z 16014KT 34/17 A2983 RMK A01 T03420172  RH  036%=      5-min Rain = 0
KHA3 200203Z 16016KT 34/17 A2983 RMK A01 T03420171  RH  036%=      5-min Rain = 0
KHA3 200204Z 16013G19KT 34/17 A2983 RMK A01 T03420171  RH  036%=      5-min Rain = 0
KHA3 200205Z 15013KT 34/17 A2983 RMK A01 T03410171  RH  036%=      5-min Rain = 0
KHA3 200206Z 16014KT 34/17 A2983 RMK A01 T03400171  RH  036%=      5-min Rain = 0
KHA3 200207Z 16013KT 34/17 A2983 RMK A01 T03400170  RH  036%=      5-min Rain = 0
KHA3 200208Z 16014KT 34/17 A2983 RMK A01 T03400169  RH  036%=      5-min Rain = 0
KHA3 200209Z 16015KT 34/17 A2983 RMK A01 T03390169  RH  036%=      5-min Rain = 0
KHA3 200210Z 16014G19KT 34/17 A2983 RMK A01 T03390168  RH  036%=      5-min Rain = 0
KHA3 200211Z 16015G20KT 34/17 A2983 RMK A01 T03390168  RH  036%=      5-min Rain = 0
KHA3 200212Z 16016KT 34/17 A2983 RMK A01 T03390168  RH  036%=      5-min Rain = 0
KHA3 200213Z 15014G21KT 34/17 A2983 RMK A01 T03390166  RH  036%=      5-min Rain = 0
KHA3 200214Z 16014KT 34/17 A2983 RMK A01 T03400167  RH  036%=      5-min Rain = 0
KHA3 200215Z 16015KT 34/17 A2983 RMK A01 T03390166  RH  036%=      5-min Rain = 0
KHA3 200216Z 16015KT 34/17 A2983 RMK A01 T03390166  RH  036%=      5-min Rain = 0
KHA3 200217Z 16014KT 34/17 A2983 RMK A01 T03400166  RH  036%=      5-min Rain = 0
KHA3 200218Z 16012KT 34/17 A2983 RMK A01 T03390167  RH  036%=      5-min Rain = 0
KHA3 200219Z 16011KT 34/17 A2983 RMK A01 T03380167  RH  036%=      5-min Rain = 0
KHA3 200220Z 16012KT 34/17 A2983 RMK A01 T03360166  RH  036%=      5-min Rain = 0
KHA3 200221Z 15012KT 34/17 A2983 RMK A01 T03350166  RH  036%=      5-min Rain = 0
KHA3 200222Z 15011KT 34/17 A2983 RMK A01 T03350166  RH  037%=      5-min Rain = 0
KHA3 200223Z 15013KT 34/17 A2984 RMK A01 T03350167  RH  037%=      5-min Rain = 0
KHA3 200224Z 15011KT 33/17 A2984 RMK A01 T03340167  RH  037%=      5-min Rain = 0
KHA3 200225Z 15011KT 33/17 A2984 RMK A01 T03340167  RH  037%=      5-min Rain = 0
KHA3 200226Z 15011KT 33/17 A2984 RMK A01 T03320167  RH  037%=      5-min Rain = 0
KHA3 200227Z 15011KT 33/17 A2984 RMK A01 T03310168  RH  038%=      5-min Rain = 0
KHA3 200228Z 15011KT 33/17 A2984 RMK A01 T03310168  RH  038%=      5-min Rain = 0
KHA3 200229Z 15013KT 33/17 A2984 RMK A01 T03300168  RH  038%=      5-min Rain = 0
KHA3 200230Z 15011KT 33/17 A2984 RMK A01 T03300168  RH  038%=      5-min Rain = 0
KHA3 200231Z 15012KT 33/17 A2984 RMK A01 T03300168  RH  038%=      5-min Rain = 0
KHA3 200232Z 15011KT 33/17 A2984 RMK A01 T03290168  RH  038%=      5-min Rain = 0
KHA3 200233Z 15012KT 33/17 A2984 RMK A01 T03290168  RH  038%=      5-min Rain = 0
KHA3 200234Z 15011KT 33/17 A2984 RMK A01 T03290169  RH  038%=      5-min Rain = 0
KHA3 200235Z 15012KT 33/17 A2984 RMK A01 T03280168  RH  039%=      5-min Rain = 0
KHA3 200236Z 15010KT 33/17 A2984 RMK A01 T03280169  RH  039%=      5-min Rain = 0
KHA3 200237Z 15012KT 33/17 A2984 RMK A01 T03270168  RH  039%=      5-min Rain = 0
KHA3 200238Z 15013KT 33/17 A2984 RMK A01 T03270168  RH  039%=      5-min Rain = 0
KHA3 200239Z 15010KT 33/17 A2984 RMK A01 T03280169  RH  039%=      5-min Rain = 0
KHA3 200240Z 15012KT 33/17 A2984 RMK A01 T03260168  RH  039%=      5-min Rain = 0
KHA3 200241Z 15011KT 33/17 A2984 RMK A01 T03260168  RH  039%=      5-min Rain = 0
KHA3 200242Z 15011KT 33/17 A2984 RMK A01 T03260168  RH  039%=      5-min Rain = 0
KHA3 200243Z 15010KT 33/17 A2984 RMK A01 T03250168  RH  039%=      5-min Rain = 0
KHA3 200244Z 15011KT 32/17 A2984 RMK A01 T03240168  RH  039%=      5-min Rain = 0
KHA3 200245Z 15010KT 32/17 A2984 RMK A01 T03240168  RH  039%=      5-min Rain = 0
KHA3 200246Z 15011KT 32/17 A2984 RMK A01 T03230168  RH  040%=      5-min Rain = 0
KHA3 200247Z 15011KT 32/17 A2984 RMK A01 T03230168  RH  040%=      5-min Rain = 0
KHA3 200248Z 15012KT 32/17 A2984 RMK A01 T03230168  RH  039%=      5-min Rain = 0
KHA3 200249Z 15012KT 32/17 A2984 RMK A01 T03230168  RH  039%=      5-min Rain = 0
KHA3 200250Z 15011KT 32/17 A2984 RMK A01 T03230168  RH  040%=      5-min Rain = 0
KHA3 200251Z 15011KT 32/17 A2984 RMK A01 T03230169  RH  040%=      5-min Rain = 0
KHA3 200252Z 15011KT 32/17 A2984 RMK A01 T03220169  RH  040%=      5-min Rain = 0
KHA3 200253Z 15011KT 32/17 A2984 RMK A01 T03220169  RH  040%=      5-min Rain = 0
KHA3 200254Z 15014KT 32/17 A2984 RMK A01 T03220169  RH  040%=      5-min Rain = 0
KHA3 200255Z 15013KT 32/17 A2984 RMK A01 T03220168  RH  040%=      5-min Rain = 0
KHA3 200256Z 15012KT 32/17 A2984 RMK A01 T03230169  RH  040%=      5-min Rain = 0
KHA3 200257Z 15013KT 32/17 A2984 RMK A01 T03230169  RH  040%=      5-min Rain = 0
KHA3 200258Z 15011KT 32/17 A2984 RMK A01 T03220169  RH  040%=      5-min Rain = 0
KHA3 200259Z 15011KT 32/17 A2985 RMK A01 T03210170  RH  040%=      5-min Rain = 0
KHA3 200300Z 15011KT 32/17 A2985 RMK A01 T03210169  RH  040%=      5-min Rain = 0
KHA3 200301Z 15014KT 32/17 A2985 RMK A01 T03210169  RH  040%=      5-min Rain = 0
KHA3 200302Z 15012KT 32/17 A2985 RMK A01 T03210169  RH  040%=      5-min Rain = 0
KHA3 200303Z 15012KT 32/17 A2985 RMK A01 T03210170  RH  040%=      5-min Rain = 0
KHA3 200304Z 15011KT 32/17 A2985 RMK A01 T03210170  RH  040%=      5-min Rain = 0
KHA3 200305Z 15012KT 32/17 A2985 RMK A01 T03200169  RH  040%=      5-min Rain = 0
KHA3 200306Z 15015KT 32/17 A2985 RMK A01 T03200169  RH  040%=      5-min Rain = 0
KHA3 200307Z 15013KT 32/17 A2985 RMK A01 T03200169  RH  040%=      5-min Rain = 0
KHA3 200308Z 15013KT 32/17 A2985 RMK A01 T03210169  RH  040%=      5-min Rain = 0
KHA3 200309Z 15013KT 32/17 A2985 RMK A01 T03210168  RH  040%=      5-min Rain = 0
KHA3 200310Z 15014KT 32/17 A2985 RMK A01 T03210168  RH  040%=      5-min Rain = 0
KHA3 200311Z 15014KT 32/17 A2985 RMK A01 T03220168  RH  040%=      5-min Rain = 0
KHA3 200312Z 16015KT 32/17 A2985 RMK A01 T03220168  RH  040%=      5-min Rain = 0
KHA3 200313Z 15013KT 32/17 A2985 RMK A01 T03220168  RH  040%=      5-min Rain = 0
KHA3 200314Z 15014KT 32/17 A2985 RMK A01 T03220168  RH  040%=      5-min Rain = 0
KHA3 200315Z 15013KT 32/17 A2985 RMK A01 T03220168  RH  040%=      5-min Rain = 0
KHA3 200316Z 15013KT 32/17 A2985 RMK A01 T03220168  RH  040%=      5-min Rain = 0
KHA3 200317Z 15015KT 32/17 A2985 RMK A01 T03210168  RH  040%=      5-min Rain = 0
KHA3 200318Z 15014KT 32/17 A2985 RMK A01 T03210167  RH  040%=      5-min Rain = 0
KHA3 200319Z 16015KT 32/17 A2985 RMK A01 T03210167  RH  040%=      5-min Rain = 0
KHA3 200320Z 15012KT 32/17 A2985 RMK A01 T03210167  RH  040%=      5-min Rain = 0
KHA3 200321Z 15014KT 32/17 A2985 RMK A01 T03200167  RH  040%=      5-min Rain = 0
KHA3 200322Z 15013KT 32/17 A2985 RMK A01 T03200167  RH  040%=      5-min Rain = 0
KHA3 200323Z 15013KT 32/17 A2985 RMK A01 T03190167  RH  040%=      5-min Rain = 0
KHA3 200324Z 15014KT 32/17 A2985 RMK A01 T03190167  RH  040%=      5-min Rain = 0
KHA3 200325Z 15014KT 32/17 A2985 RMK A01 T03190166  RH  040%=      5-min Rain = 0
KHA3 200326Z 15014KT 32/17 A2986 RMK A01 T03190167  RH  040%=      5-min Rain = 0
KHA3 200327Z 16014KT 32/17 A2986 RMK A01 T03190166  RH  040%=      5-min Rain = 0
KHA3 200328Z 15014KT 32/17 A2986 RMK A01 T03190166  RH  040%=      5-min Rain = 0
KHA3 200329Z 15015KT 32/17 A2986 RMK A01 T03190166  RH  040%=      5-min Rain = 0
KHA3 200330Z 16014KT 32/17 A2986 RMK A01 T03180166  RH  040%=      5-min Rain = 0
KHA3 200331Z 15013KT 32/17 A2986 RMK A01 T03180166  RH  040%=      5-min Rain = 0
KHA3 200332Z 15014KT 32/17 A2986 RMK A01 T03180165  RH  040%=      5-min Rain = 0
KHA3 200333Z 16013KT 32/17 A2986 RMK A01 T03180165  RH  040%=      5-min Rain = 0
KHA3 200334Z 15014KT 32/16 A2986 RMK A01 T03180164  RH  040%=      5-min Rain = 0
KHA3 200335Z 15013KT 32/17 A2986 RMK A01 T03180165  RH  040%=      5-min Rain = 0
KHA3 200336Z 16013KT 32/16 A2986 RMK A01 T03170164  RH  040%=      5-min Rain = 0
KHA3 200337Z 16013KT 32/16 A2986 RMK A01 T03170164  RH  040%=      5-min Rain = 0
KHA3 200338Z 15013KT 32/16 A2986 RMK A01 T03160164  RH  040%=      5-min Rain = 0
KHA3 200339Z 16012KT 32/16 A2986 RMK A01 T03150164  RH  040%=      5-min Rain = 0
KHA3 200340Z 16013KT 32/16 A2986 RMK A01 T03150163  RH  040%=      5-min Rain = 0
KHA3 200341Z 15014KT 32/16 A2986 RMK A01 T03150162  RH  040%=      5-min Rain = 0
KHA3 200342Z 16013KT 32/16 A2986 RMK A01 T03150162  RH  040%=      5-min Rain = 0
KHA3 200343Z 15013KT 32/16 A2986 RMK A01 T03150162  RH  040%=      5-min Rain = 0
KHA3 200344Z 15013KT 32/16 A2986 RMK A01 T03150163  RH  040%=      5-min Rain = 0
KHA3 200345Z 15014KT 32/16 A2986 RMK A01 T03150162  RH  040%=      5-min Rain = 0
KHA3 200346Z 15014KT 32/16 A2986 RMK A01 T03150162  RH  040%=      5-min Rain = 0
KHA3 200347Z 15013KT 32/16 A2986 RMK A01 T03150161  RH  040%=      5-min Rain = 0
KHA3 200348Z 15013KT 32/16 A2986 RMK A01 T03150162  RH  040%=      5-min Rain = 0
KHA3 200349Z 15013KT 31/16 A2986 RMK A01 T03140162  RH  040%=      5-min Rain = 0
KHA3 200350Z 16012KT 31/16 A2986 RMK A01 T03140162  RH  040%=      5-min Rain = 0
KHA3 200351Z 15014KT 31/16 A2986 RMK A01 T03140161  RH  040%=      5-min Rain = 0
KHA3 200352Z 16013KT 31/16 A2986 RMK A01 T03140162  RH  040%=      5-min Rain = 0
KHA3 200353Z 15013KT 31/16 A2986 RMK A01 T03130162  RH  040%=      5-min Rain = 0
KHA3 200354Z 15013KT 31/16 A2986 RMK A01 T03130162  RH  040%=      5-min Rain = 0
KHA3 200355Z 15012KT 31/16 A2986 RMK A01 T03120162  RH  040%=      5-min Rain = 0
KHA3 200356Z 15012KT 31/16 A2986 RMK A01 T03120161  RH  040%=      5-min Rain = 0
KHA3 200357Z 15012KT 31/16 A2986 RMK A01 T03110161  RH  040%=      5-min Rain = 0
KHA3 200358Z 15014KT 31/16 A2986 RMK A01 T03110161  RH  041%=      5-min Rain = 0
KHA3 200359Z 15012KT 31/16 A2986 RMK A01 T03110161  RH  041%=      5-min Rain = 0
KHA3 200400Z 16014KT 31/16 A2986 RMK A01 T03110161  RH  041%=      5-min Rain = 0
KHA3 200401Z 15014KT 31/16 A2986 RMK A01 T03110161  RH  041%=      5-min Rain = 0
KHA3 200402Z 15013KT 31/16 A2986 RMK A01 T03110161  RH  041%=      5-min Rain = 0
KHA3 200403Z 15012KT 31/16 A2986 RMK A01 T03100161  RH  041%=      5-min Rain = 0
KHA3 200404Z 15013KT 31/16 A2986 RMK A01 T03100161  RH  041%=      5-min Rain = 0
KHA3 200405Z 15014KT 31/16 A2986 RMK A01 T03090161  RH  041%=      5-min Rain = 0
KHA3 200406Z 15013KT 31/16 A2986 RMK A01 T03090161  RH  041%=      5-min Rain = 0
KHA3 200407Z 15012KT 31/16 A2986 RMK A01 T03090161  RH  041%=      5-min Rain = 0
KHA3 200408Z 15014KT 31/16 A2986 RMK A01 T03080161  RH  041%=      5-min Rain = 0
KHA3 200409Z 15013KT 31/16 A2986 RMK A01 T03080161  RH  041%=      5-min Rain = 0
KHA3 200410Z 15011KT 31/16 A2986 RMK A01 T03080161  RH  041%=      5-min Rain = 0
KHA3 200411Z 15012KT 31/16 A2987 RMK A01 T03080161  RH  041%=      5-min Rain = 0
KHA3 200412Z 15013KT 31/16 A2987 RMK A01 T03070161  RH  041%=      5-min Rain = 0
KHA3 200413Z 15012KT 31/16 A2987 RMK A01 T03070161  RH  041%=      5-min Rain = 0
KHA3 200414Z 15015KT 31/16 A2987 RMK A01 T03070161  RH  041%=      5-min Rain = 0
KHA3 200415Z 16014KT 31/16 A2987 RMK A01 T03070160  RH  041%=      5-min Rain = 0
KHA3 200416Z 15014KT 31/16 A2987 RMK A01 T03070161  RH  041%=      5-min Rain = 0
KHA3 200417Z 16014KT 31/16 A2987 RMK A01 T03070161  RH  041%=      5-min Rain = 0
KHA3 200418Z 15013KT 31/16 A2987 RMK A01 T03070161  RH  041%=      5-min Rain = 0
KHA3 200419Z 15015KT 31/16 A2987 RMK A01 T03070161  RH  041%=      5-min Rain = 0
KHA3 200420Z 16014KT 31/16 A2987 RMK A01 T03070161  RH  041%=      5-min Rain = 0
KHA3 200421Z 15013KT 31/16 A2987 RMK A01 T03080161  RH  041%=      5-min Rain = 0
KHA3 200422Z 16015KT 31/16 A2987 RMK A01 T03080161  RH  041%=      5-min Rain = 0
KHA3 200423Z 16014KT 31/16 A2987 RMK A01 T03080161  RH  041%=      5-min Rain = 0
KHA3 200424Z 16014KT 31/16 A2987 RMK A01 T03070161  RH  041%=      5-min Rain = 0
KHA3 200425Z 16015KT 31/16 A2987 RMK A01 T03070161  RH  041%=      5-min Rain = 0
KHA3 200426Z 16014KT 31/16 A2987 RMK A01 T03070161  RH  041%=      5-min Rain = 0
KHA3 200427Z 16015KT 31/16 A2987 RMK A01 T03070161  RH  042%=      5-min Rain = 0
KHA3 200428Z 16012KT 31/16 A2987 RMK A01 T03070162  RH  042%=      5-min Rain = 0
KHA3 200429Z 16012KT 31/16 A2987 RMK A01 T03060161  RH  042%=      5-min Rain = 0
KHA3 200430Z 16014KT 31/16 A2987 RMK A01 T03050161  RH  042%=      5-min Rain = 0
KHA3 200431Z 16013KT 30/16 A2987 RMK A01 T03040161  RH  042%=      5-min Rain = 0
KHA3 200432Z 16012KT 30/16 A2987 RMK A01 T03040162  RH  042%=      5-min Rain = 0
KHA3 200433Z 16015KT 30/16 A2987 RMK A01 T03040162  RH  042%=      5-min Rain = 0
KHA3 200434Z 16014KT 30/16 A2987 RMK A01 T03040161  RH  042%=      5-min Rain = 0
KHA3 200435Z 16014KT 30/16 A2987 RMK A01 T03040162  RH  042%=      5-min Rain = 0
KHA3 200436Z 16014KT 30/16 A2987 RMK A01 T03040161  RH  042%=      5-min Rain = 0
KHA3 200437Z 16015KT 30/16 A2987 RMK A01 T03040161  RH  042%=      5-min Rain = 0
KHA3 200438Z 16014KT 30/16 A2987 RMK A01 T03040162  RH  042%=      5-min Rain = 0
KHA3 200439Z 16014KT 30/16 A2987 RMK A01 T03040162  RH  042%=      5-min Rain = 0
KHA3 200440Z 16013KT 30/16 A2987 RMK A01 T03040162  RH  042%=      5-min Rain = 0
KHA3 200441Z 16013KT 30/16 A2987 RMK A01 T03030162  RH  043%=      5-min Rain = 0
KHA3 200442Z 16015KT 30/16 A2987 RMK A01 T03020162  RH  043%=      5-min Rain = 0
KHA3 200443Z 16014KT 30/16 A2987 RMK A01 T03020162  RH  043%=      5-min Rain = 0
KHA3 200444Z 16013KT 30/16 A2987 RMK A01 T03020162  RH  043%=      5-min Rain = 0
KHA3 200445Z 16013KT 30/16 A2987 RMK A01 T03020163  RH  043%=      5-min Rain = 0
KHA3 200446Z 16014KT 30/16 A2987 RMK A01 T03010163  RH  043%=      5-min Rain = 0
KHA3 200447Z 16014KT 30/16 A2987 RMK A01 T03000162  RH  043%=      5-min Rain = 0
KHA3 200448Z 16015KT 30/16 A2987 RMK A01 T03000162  RH  043%=      5-min Rain = 0
KHA3 200449Z 16014KT 30/16 A2987 RMK A01 T03010162  RH  043%=      5-min Rain = 0
KHA3 200450Z 16015KT 30/16 A2987 RMK A01 T03020162  RH  043%=      5-min Rain = 0
KHA3 200451Z 16015KT 30/16 A2987 RMK A01 T03020163  RH  043%=      5-min Rain = 0
KHA3 200452Z 16015KT 30/16 A2987 RMK A01 T03020163  RH  043%=      5-min Rain = 0
KHA3 200453Z 16015KT 30/16 A2987 RMK A01 T03020163  RH  043%=      5-min Rain = 0
KHA3 200454Z 16014KT 30/16 A2987 RMK A01 T03010163  RH  043%=      5-min Rain = 0
KHA3 200455Z 16014KT 30/16 A2987 RMK A01 T03010163  RH  043%=      5-min Rain = 0
KHA3 200456Z 16014KT 30/16 A2987 RMK A01 T03010163  RH  043%=      5-min Rain = 0
KHA3 200457Z 16015KT 30/16 A2987 RMK A01 T03010164  RH  044%=      5-min Rain = 0
KHA3 200458Z 16015KT 30/16 A2987 RMK A01 T03010164  RH  044%=      5-min Rain = 0
KHA3 200459Z 16014KT 30/16 A2987 RMK A01 T03010164  RH  044%=      5-min Rain = 0

Page generated in 0.1217 seconds.